GFSWCAN_925_spd_000.txt.gz
Wind_Speed
18 20 25 27 28 28 29 28 27 26 23 23 22 20 17 16 16 15 7 15 9 3 6 9 6 10 4 4 5 3 0 2 2 4 4 5 4 5 4 13 6 8 4 5 5 7 11 4 3 5 14 24 28 28
6 14 19 26 31 29 28 28 28 26 26 25 24 22 21 18 18 16 8 16 20 6 3 8 19 27 21 20 9 4 7 5 3 3 3 3 3 3 4 10 6 5 10 10 12 10 14 12 16 18 24 25 28 24
3 2 10 18 21 29 29 29 29 28 28 28 26 25 24 21 20 21 16 14 17 1 4 5 12 31 26 28 24 8 2 8 5 8 4 4 10 3 7 7 10 6 13 11 14 14 26 21 21 25 28 24 23 23
3 4 5 6 15 20 25 28 31 29 29 29 27 28 26 24 23 25 22 22 15 2 2 5 18 21 21 22 25 27 26 19 13 6 4 5 8 8 5 7 8 9 6 8 18 22 28 23 23 23 26 25 24 18
2 3 3 5 5 12 21 21 27 31 30 29 28 27 24 26 25 28 31 27 25 8 3 3 4 18 20 18 23 23 24 16 9 3 4 6 3 5 7 10 11 6 8 7 18 26 23 28 26 28 30 26 23 17
2 3 1 3 3 2 4 13 19 22 26 24 26 27 26 25 25 18 2 17 30 29 2 3 2 5 15 22 23 25 21 7 7 3 4 3 3 4 4 7 12 12 15 19 21 23 27 30 31 30 24 24 24 20
4 2 3 3 6 11 13 12 10 8 10 12 12 13 20 22 26 6 4 5 8 21 2 3 3 2 4 5 6 9 15 4 5 3 4 6 6 4 3 17 32 22 24 24 23 23 25 26 20 24 25 24 24 20
9 6 3 4 4 4 4 5 7 8 9 10 9 8 7 9 10 1 1 3 6 2 3 2 3 2 4 3 3 1 2 2 3 4 1 5 7 3 7 21 25 24 25 23 21 17 17 20 22 18 19 18 19 16
13 11 8 6 6 6 8 8 7 7 8 9 12 11 6 3 2 2 4 5 6 4 2 3 2 1 2 2 1 1 2 2 3 4 5 6 7 8 17 23 22 24 22 24 20 18 17 13 16 17 18 18 16 11
14 14 13 11 9 9 9 11 12 13 15 14 8 4 2 4 7 4 1 0 1 1 2 2 0 1 3 1 1 2 3 4 4 5 3 4 14 22 24 24 22 23 18 10 10 10 12 15 15 17 14 10 6 4
16 15 13 11 9 10 12 13 13 13 9 2 2 1 3 4 4 2 2 3 2 2 2 2 3 6 3 5 4 4 3 3 4 3 4 3 5 13 11 10 7 6 5 5 7 10 11 12 12 8 5 5 5 4
14 13 12 11 11 11 12 12 12 5 3 4 6 4 2 1 2 2 3 3 4 3 2 2 2 3 2 2 4 3 4 4 7 2 2 3 4 4 2 3 4 4 5 7 10 10 9 6 4 4 3 3 4 4
12 11 11 11 12 12 13 12 9 9 11 5 3 2 1 2 4 5 5 3 3 2 1 1 1 1 1 1 3 2 4 1 2 2 3 3 5 3 1 3 5 6 6 8 12 12 9 6 4 4 5 5 2 2
12 12 12 13 13 13 12 11 12 11 3 2 3 4 4 5 5 4 2 2 2 1 2 1 1 2 2 2 2 5 3 2 4 4 5 1 2 5 5 5 6 8 7 7 10 9 5 4 4 3 1 2 2 2
13 12 12 12 12 12 12 11 10 5 2 2 3 4 6 1 1 1 1 1 1 1 2 2 3 2 3 4 4 4 4 5 4 4 1 3 3 6 8 8 9 6 6 7 9 5 6 6 6 5 3 1 2 2
15 10 8 13 13 12 14 14 8 2 2 1 3 3 3 2 3 2 3 2 2 2 0 1 3 3 6 4 6 6 4 6 7 3 5 6 11 10 11 8 7 9 9 10 11 8 8 6 7 6 4 1 1 2
15 4 12 15 16 14 15 7 4 3 3 3 4 4 4 2 3 2 3 3 5 3 2 2 5 11 1 4 5 5 8 10 8 8 8 12 11 13 14 12 9 11 12 13 11 6 6 7 7 5 3 3 1 2
5 11 15 21 17 16 6 3 3 3 6 5 4 5 6 5 5 4 4 4 5 3 3 5 4 5 5 8 12 9 8 8 9 10 11 12 14 16 20 16 19 16 16 11 9 6 7 8 8 5 4 4 2 1
14 15 17 25 18 6 5 4 3 3 6 4 3 5 4 3 5 10 4 8 12 8 2 3 6 7 10 9 9 8 9 10 10 13 12 16 19 18 20 20 18 16 15 11 8 9 8 10 6 5 5 6 3 2
12 15 19 21 18 4 3 3 4 3 3 3 4 5 4 4 1 2 4 5 6 3 6 5 9 10 11 13 13 12 10 11 11 12 14 12 17 17 17 16 12 13 8 7 7 8 8 7 5 4 5 6 4 3
17 14 15 18 10 6 2 4 4 3 3 4 2 3 3 1 3 4 5 5 6 6 9 10 12 13 18 21 24 20 15 16 12 11 13 13 14 14 15 13 14 8 7 7 6 10 8 8 6 6 6 5 3 2
7 16 11 15 6 7 4 9 2 2 3 2 3 3 4 5 6 5 3 5 7 11 12 13 13 13 14 16 17 25 24 27 26 21 22 22 11 7 5 8 6 4 6 8 10 7 8 7 8 8 8 5 4 3
14 15 6 7 5 6 1 9 6 5 4 4 3 3 4 4 4 2 4 5 6 10 13 13 18 25 18 27 29 28 29 24 12 16 17 16 16 11 9 7 5 5 5 9 8 8 8 9 10 9 6 6 5 4
9 6 4 4 6 3 4 6 4 4 4 3 4 5 6 4 4 4 7 10 12 10 9 13 13 10 13 14 11 11 20 18 16 16 15 13 6 8 10 9 8 9 9 7 9 9 9 11 11 9 7 7 6 5
4 6 5 6 5 6 7 5 5 5 6 6 5 7 3 3 4 6 12 13 10 10 7 6 5 5 7 9 9 13 17 14 9 8 12 14 8 5 4 5 6 6 8 9 10 12 12 12 11 9 10 9 8 6
7 8 8 9 6 7 8 6 8 9 6 6 8 3 1 4 5 7 5 5 5 5 4 5 5 4 6 7 9 9 13 11 10 8 9 7 10 7 5 6 4 5 9 11 12 13 14 13 12 11 11 10 9 7
7 9 5 4 4 4 4 0 2 4 7 9 4 6 5 6 8 5 4 4 4 6 7 7 8 8 7 11 12 14 15 13 10 8 6 4 6 8 9 5 4 4 11 15 15 15 15 14 12 12 10 8 6 6
7 6 12 9 5 4 6 5 6 7 6 5 4 7 6 7 6 3 4 2 6 5 6 9 11 12 13 13 13 12 9 5 4 3 3 4 4 5 6 7 7 6 10 15 16 15 14 12 10 9 8 8 6 5
7 5 5 7 6 5 8 9 10 8 5 5 7 9 8 5 3 2 1 2 4 5 8 8 9 9 10 10 9 7 6 6 6 7 10 5 3 5 6 6 5 6 11 12 13 12 11 10 7 5 4 3 4 4
8 7 8 9 9 11 10 8 5 1 3 6 7 9 10 6 3 3 3 3 4 6 8 9 11 10 9 8 8 7 6 8 12 9 6 6 6 10 12 10 10 10 10 11 11 10 9 7 5 2 1 2 3 4
4 8 4 6 6 6 4 1 1 2 3 3 4 7 11 3 2 1 1 4 6 7 6 6 7 7 6 6 6 5 4 2 5 8 10 7 7 14 14 13 12 11 9 8 7 6 6 5 4 3 3 3 3 4
5 8 5 5 4 2 3 3 3 4 4 5 5 5 2 3 4 3 3 6 3 3 4 6 5 5 3 2 2 2 3 5 5 4 3 6 9 11 12 11 11 9 8 7 6 6 6 6 6 5 4 4 4 4
4 5 4 3 3 4 5 5 5 4 4 4 4 3 3 2 3 2 4 6 3 5 7 7 7 3 2 5 6 8 8 9 8 8 9 9 10 10 9 8 7 6 6 5 5 4 5 6 6 5 5 4 4 4

GFSWCAN_925_spd_003.txt.gz
Wind_Speed
19 20 22 23 26 27 28 28 28 27 25 23 21 19 16 13 11 13 6 10 10 3 8 8 13 11 7 5 7 2 2 3 1 3 4 5 4 5 7 14 10 11 4 4 4 8 10 2 5 3 11 22 26 23
12 17 20 22 29 29 27 27 27 26 26 25 24 23 20 18 15 15 8 9 10 5 5 5 17 26 21 22 12 5 8 5 6 4 4 3 5 2 5 14 18 13 14 11 11 9 16 24 24 23 24 25 22 23
6 7 12 18 23 28 29 26 27 26 26 26 25 25 23 22 19 18 10 10 10 0 4 6 12 28 21 22 20 11 5 11 11 11 7 4 7 4 6 6 6 7 16 17 20 17 24 23 26 28 21 19 25 20
3 2 4 5 13 19 22 30 31 29 27 27 27 26 25 24 23 21 22 18 11 3 3 4 18 18 19 20 23 26 25 21 18 7 3 3 3 7 6 12 14 9 6 13 23 26 26 20 21 20 19 23 22 22
5 2 1 1 1 6 16 21 25 29 27 29 28 28 26 26 23 26 29 24 22 7 3 3 4 15 19 20 22 24 24 16 9 3 3 7 3 4 7 10 12 9 18 13 14 26 21 28 21 23 19 18 23 24
5 4 1 1 2 2 2 11 20 20 25 29 28 28 26 25 22 16 3 20 30 25 2 2 2 7 22 23 28 25 22 12 10 3 3 3 6 4 4 11 7 11 14 20 21 25 27 25 20 17 20 22 18 19
6 5 6 4 8 7 6 4 4 13 18 19 24 26 25 25 26 6 4 2 12 22 2 3 3 2 3 6 19 14 18 7 4 5 4 4 5 4 4 20 31 21 22 24 24 25 21 21 19 22 17 19 23 25
12 9 8 6 6 6 7 10 12 12 12 11 11 11 11 14 11 4 4 4 12 4 4 2 3 2 2 1 1 2 1 2 2 2 1 2 5 4 7 21 24 22 22 21 19 16 17 20 17 16 20 20 20 18
16 13 10 10 9 7 8 9 10 11 13 17 20 18 11 3 3 5 6 3 2 1 3 2 1 1 3 2 1 1 1 2 3 3 4 5 6 8 16 21 22 24 22 18 18 17 14 12 15 18 20 21 17 15
18 15 13 12 10 9 9 11 13 15 19 17 7 5 2 4 10 7 4 1 1 1 2 2 1 2 3 2 0 2 1 3 3 6 4 4 12 22 25 24 22 12 13 14 11 11 13 15 16 19 18 13 10 6
17 17 15 13 12 11 12 12 14 17 10 2 3 2 6 8 3 1 2 2 3 3 3 3 6 4 2 2 3 4 2 2 3 5 4 4 6 11 7 9 11 10 8 6 8 11 14 16 17 15 11 10 8 7
19 20 18 16 14 13 14 16 16 3 2 4 8 7 4 2 2 2 3 3 4 3 5 3 3 3 2 2 3 3 3 4 7 2 2 4 1 5 5 5 6 7 7 10 12 14 19 21 18 10 7 6 8 8
18 18 17 16 15 16 14 13 9 9 11 4 4 2 1 2 4 5 6 3 3 2 2 1 2 1 0 2 2 2 4 3 1 3 3 4 5 3 3 6 9 13 8 6 13 19 21 20 15 4 7 9 7 6
18 17 16 16 16 15 14 13 13 9 3 2 2 4 4 5 5 4 3 3 2 3 3 3 1 1 1 2 2 4 3 2 4 5 8 5 6 6 8 8 9 11 7 7 12 17 14 11 10 11 10 7 4 5
16 16 17 17 17 16 15 14 13 5 3 2 3 5 6 3 1 4 3 3 3 3 1 1 1 1 2 4 3 4 4 6 5 6 5 6 3 7 10 11 12 9 7 9 17 12 11 12 8 7 7 7 5 4
18 16 12 18 17 16 15 12 8 3 1 1 2 2 2 1 3 2 2 2 3 3 2 0 2 3 5 4 6 7 5 10 10 5 7 10 11 12 13 11 10 16 18 19 19 17 14 10 10 7 8 9 6 4
15 5 16 18 16 17 17 6 4 2 2 2 3 2 2 2 1 2 3 3 7 4 2 2 5 9 3 5 6 6 10 11 9 9 9 13 14 14 11 13 16 16 17 19 19 18 16 12 9 7 7 10 6 5
5 12 21 21 19 17 5 1 2 2 4 5 3 4 4 4 3 3 3 3 4 3 5 5 4 9 7 13 13 10 10 10 10 10 11 14 13 18 19 16 22 21 21 21 15 18 13 10 9 10 10 6 5 5
11 17 23 24 17 5 3 1 2 3 5 2 4 4 5 4 7 11 5 7 11 11 3 3 7 9 11 11 11 11 10 10 11 13 13 18 19 19 21 21 19 21 19 18 16 11 11 12 11 10 7 7 7 5
14 14 23 22 14 4 2 2 3 3 3 4 5 6 6 4 3 3 5 5 7 3 6 5 10 11 11 12 12 12 11 12 12 12 14 12 19 21 20 19 18 20 19 17 11 10 9 8 10 8 6 7 7 6
13 13 18 19 8 3 1 3 4 3 3 3 4 6 4 4 6 6 6 7 6 5 10 11 13 14 20 21 24 23 20 20 14 13 14 14 19 20 21 23 21 17 14 9 7 10 11 11 10 8 7 7 6 4
9 19 6 10 3 4 3 8 3 3 3 2 1 4 4 6 7 7 5 5 6 11 12 12 12 12 13 15 17 24 25 27 26 25 25 26 14 12 10 16 11 7 10 11 11 8 9 10 7 7 9 8 6 4
16 15 5 5 5 5 3 9 6 5 5 4 4 4 4 4 4 2 4 7 9 12 14 14 17 20 17 23 25 26 28 24 15 18 19 20 21 20 18 16 16 12 6 10 10 8 8 10 10 9 10 8 6 6
10 7 4 5 7 3 4 5 4 3 3 3 5 7 9 6 4 4 10 11 11 11 11 15 15 10 12 15 10 12 19 16 17 18 19 18 10 16 17 17 13 13 11 9 9 10 10 11 11 11 10 8 9 8
4 6 5 6 5 5 6 5 6 6 6 8 11 8 3 3 5 8 14 12 9 9 9 11 9 9 9 9 8 16 15 12 10 8 18 17 17 16 10 9 8 8 10 10 11 13 11 12 12 11 10 10 10 9
8 7 9 7 6 6 7 5 7 10 10 11 7 3 1 4 6 8 7 6 5 6 4 6 7 7 8 12 10 9 12 10 12 12 18 16 12 8 5 4 4 8 13 13 13 14 13 13 13 12 11 10 10 8
5 8 5 5 5 5 4 2 4 5 8 7 5 7 5 6 7 7 7 7 6 9 8 10 12 11 10 14 16 16 14 14 15 15 15 14 12 12 12 7 6 7 11 12 15 14 14 15 13 13 11 9 9 8
7 4 13 9 5 8 13 10 7 7 8 7 7 10 5 6 7 5 3 2 3 5 7 9 10 12 15 16 15 15 15 12 12 11 11 10 8 8 8 9 7 5 5 6 12 13 15 16 14 12 11 9 7 7
7 6 5 10 12 8 9 10 12 9 8 7 10 13 13 8 8 6 11 4 4 7 9 11 12 12 14 15 16 17 14 10 9 10 11 7 5 8 9 8 7 7 7 7 11 12 13 13 12 9 7 5 5 5
12 8 12 15 10 12 11 7 9 6 6 8 10 12 12 11 22 15 7 7 9 10 10 10 10 10 11 11 11 11 12 10 11 11 8 7 5 7 13 13 10 8 9 11 11 10 11 11 10 6 4 3 5 6
2 5 9 13 17 15 14 4 2 2 3 5 5 9 12 9 4 5 7 7 8 8 9 9 8 8 9 9 8 7 5 0 5 8 10 12 14 9 8 8 8 8 9 9 9 8 7 6 5 4 4 5 5 6
5 8 6 7 7 4 3 3 4 4 4 6 8 6 3 3 6 4 1 2 4 5 2 4 5 5 6 5 3 2 3 5 8 8 7 4 5 6 7 7 8 7 6 5 3 2 4 5 4 4 4 5 4 4
9 9 10 8 5 5 6 5 5 4 6 5 5 8 6 4 3 3 2 3 1 2 4 5 5 5 3 3 3 5 6 7 7 7 6 7 8 8 7 5 5 4 4 2 2 1 2 4 5 4 3 2 2 2

GFSWCAN_925_spd_006.txt.gz
Wind_Speed
16 19 28 28 28 29 27 27 26 24 23 20 18 16 13 10 8 7 7 6 5 2 6 9 10 11 8 4 3 2 3 2 2 3 3 4 3 4 5 8 7 8 6 4 5 5 11 4 12 5 14 17 19 15
16 16 18 22 25 29 25 27 25 25 24 23 22 20 18 15 12 9 7 7 7 5 5 5 10 17 15 18 8 3 4 4 5 3 3 3 3 2 2 8 14 5 7 7 9 7 20 24 25 16 24 20 18 20
6 11 15 18 24 25 26 24 26 25 24 23 24 23 22 19 17 15 9 8 3 2 5 8 11 21 19 19 16 7 3 6 6 7 4 3 5 3 4 4 5 6 13 12 16 18 23 24 25 22 21 18 18 18
5 4 5 9 15 20 26 30 28 26 25 24 24 23 23 21 21 19 17 13 8 2 2 5 17 17 13 15 19 21 20 19 14 5 3 4 3 6 5 9 10 6 9 12 21 23 22 20 19 22 22 19 13 15
4 3 2 3 5 12 18 23 27 29 29 27 26 26 24 23 21 20 23 24 20 6 3 3 4 15 16 17 18 21 19 12 7 3 3 4 3 3 7 8 7 6 15 10 17 21 19 25 22 25 16 10 15 13
6 4 2 2 3 2 5 14 21 25 28 31 32 29 28 25 20 15 2 20 33 21 2 3 4 5 18 20 19 20 20 11 10 4 3 4 3 5 4 12 9 14 13 15 17 26 26 24 19 17 15 14 12 14
5 6 5 2 3 3 2 2 10 18 22 23 27 28 25 24 26 7 4 3 10 22 3 3 3 2 7 10 10 10 18 8 5 4 4 3 3 5 3 11 22 18 19 23 23 17 14 15 12 12 8 15 20 17
9 7 8 8 5 5 8 9 6 4 8 15 16 17 21 17 13 3 5 5 14 7 4 3 3 3 3 2 2 5 2 2 2 2 1 1 1 2 5 16 19 20 19 18 13 12 11 10 13 13 17 16 13 12
14 10 8 7 5 6 5 8 10 11 12 14 18 22 16 3 3 6 9 9 5 4 3 2 3 2 3 2 1 2 2 1 2 3 3 3 4 7 10 15 16 17 15 11 10 10 11 12 13 14 15 16 13 10
16 13 10 10 7 6 6 9 11 15 19 13 5 4 2 3 14 10 4 3 4 2 2 2 2 3 4 1 1 1 1 2 2 4 4 4 9 19 19 18 14 8 7 7 5 7 10 11 13 15 15 13 8 5
17 15 13 11 10 9 9 9 15 17 7 2 2 2 6 10 3 2 2 1 2 3 3 2 5 1 1 2 2 2 1 2 3 3 4 3 4 9 9 3 5 5 5 6 8 10 13 13 14 14 12 7 2 4
19 17 16 13 12 11 12 14 15 1 1 4 9 8 4 1 2 2 3 3 3 3 4 3 2 1 2 2 2 3 2 3 6 3 2 4 3 2 1 1 2 5 9 11 12 13 18 19 19 12 12 5 4 7
18 17 18 16 15 15 15 17 8 7 12 5 4 2 2 2 4 4 6 3 4 2 1 1 2 2 2 3 1 2 4 5 3 3 3 3 3 6 1 4 7 12 9 10 16 22 23 22 21 15 12 10 9 9
19 19 17 16 16 15 15 14 12 6 1 1 2 3 4 4 4 2 2 2 2 2 3 3 2 1 1 1 2 3 4 3 4 5 5 1 5 4 5 5 7 10 5 7 12 18 19 17 18 17 13 14 10 7
17 16 16 15 15 15 13 13 12 2 2 2 1 3 5 1 5 3 2 3 2 1 1 2 2 2 1 2 3 3 4 6 6 4 2 6 4 5 6 8 10 2 5 7 17 15 15 18 11 13 14 10 9 8
17 14 10 16 16 15 13 13 6 2 2 1 2 2 2 1 2 1 1 1 2 3 1 1 1 2 4 4 6 8 5 7 4 3 6 7 7 5 6 9 5 8 9 13 19 18 17 17 12 12 11 12 10 12
16 4 14 18 15 13 12 3 2 2 1 2 3 1 1 2 2 2 2 4 6 3 2 2 3 8 3 5 7 5 6 7 6 6 7 9 11 10 10 10 11 14 16 18 19 18 17 17 17 14 8 10 13 13
1 10 19 20 18 14 3 1 2 2 3 4 3 3 3 3 3 3 2 4 3 3 2 4 4 8 6 11 11 8 7 8 8 9 10 12 11 18 17 12 21 23 20 19 20 14 14 17 15 10 11 11 13 10
12 17 22 24 18 5 4 1 2 2 5 1 3 1 4 2 7 9 3 6 10 9 2 3 7 8 10 8 10 9 9 8 9 11 10 18 18 18 20 22 21 19 19 19 13 12 18 19 13 11 12 13 9 11
15 21 26 23 9 3 2 2 1 3 2 3 5 6 6 4 2 2 4 5 6 3 5 5 8 10 9 9 10 10 10 11 11 11 13 12 20 20 20 20 19 23 22 22 14 17 14 10 11 12 8 7 8 6
14 15 21 15 3 2 0 3 3 2 3 3 3 5 4 5 6 4 4 6 5 5 8 8 11 12 18 20 22 20 18 18 12 11 13 13 20 21 22 24 25 22 18 14 8 13 13 11 10 12 11 6 5 7
9 19 7 8 1 0 2 7 3 3 3 3 2 2 3 5 5 5 4 6 6 10 11 12 11 10 11 13 16 20 20 21 24 24 25 24 12 10 11 18 18 11 13 11 14 12 11 13 10 12 8 7 9 8
18 8 4 3 2 3 4 8 4 4 4 4 3 4 4 4 3 3 4 6 7 12 14 13 17 20 16 21 21 22 23 22 15 18 18 19 20 19 18 22 21 16 9 15 15 12 10 11 10 8 8 10 10 8
9 9 5 5 7 3 4 5 3 3 4 5 4 5 6 4 4 5 9 10 12 10 10 13 15 10 11 15 10 11 16 18 17 18 18 17 10 15 20 21 16 19 20 13 10 8 5 9 9 9 11 10 9 8
4 6 4 5 6 6 5 4 5 5 6 8 12 8 4 2 4 7 11 12 9 8 8 9 8 7 8 8 7 13 19 18 12 7 18 18 19 19 17 17 18 16 12 8 3 5 8 8 10 10 10 10 9 8
7 7 8 6 7 6 7 5 7 11 10 11 6 3 1 3 6 7 6 5 3 4 4 5 4 5 6 9 8 7 13 8 9 10 19 16 14 12 8 6 6 6 11 13 12 10 11 12 12 11 11 10 8 8
6 7 5 5 5 5 3 4 4 6 7 6 5 9 4 5 6 5 5 5 4 5 6 8 9 8 8 13 15 12 11 14 14 17 22 22 20 19 16 11 9 10 11 14 14 13 14 13 12 12 11 10 11 11
6 4 9 8 6 6 10 8 6 6 6 5 6 10 5 5 6 5 1 3 3 6 9 10 11 13 15 13 14 15 17 16 19 20 21 20 19 19 17 15 13 9 7 9 10 11 12 13 12 11 11 9 8 8
5 4 5 8 10 6 8 9 12 8 8 8 11 13 14 10 9 8 17 15 13 10 8 11 13 14 15 17 17 16 17 16 11 11 13 8 8 9 15 14 12 10 9 8 8 8 12 13 12 12 11 9 6 6
9 6 8 10 13 12 13 7 10 7 6 7 7 9 11 12 26 28 26 16 10 12 13 10 9 9 11 10 11 13 14 13 13 6 6 7 10 19 21 15 15 13 11 9 7 7 11 13 12 11 9 7 5 5
3 4 10 12 15 14 13 8 5 4 5 9 10 11 14 12 19 20 10 8 9 9 9 9 10 7 7 7 6 6 5 4 6 8 10 13 13 12 9 4 2 2 3 5 4 4 5 5 5 6 4 2 2 2
4 8 9 14 13 9 2 3 4 7 9 8 11 8 10 6 6 2 3 4 3 6 3 1 3 4 6 6 4 1 1 4 6 7 8 8 7 6 5 5 5 6 6 6 5 4 3 2 3 2 1 2 2 3
10 10 12 11 10 11 9 5 5 5 8 11 10 9 9 6 4 3 4 5 5 6 6 6 5 6 4 3 2 2 4 6 8 8 7 7 7 7 7 7 5 4 4 4 4 4 3 2 2 0 3 5 6 6

GFSWCAN_925_spd_009.txt.gz
Wind_Speed
12 20 33 26 28 28 25 23 23 20 18 17 14 11 7 4 2 2 2 4 1 2 4 3 2 3 3 2 4 3 4 4 3 2 3 3 4 4 2 4 3 5 3 4 2 5 8 2 8 5 10 9 18 14
12 12 18 28 25 27 26 26 25 23 22 20 18 15 12 9 6 4 1 1 1 3 4 5 9 12 6 2 3 1 5 3 4 3 3 2 3 1 4 6 3 3 7 4 9 6 6 13 12 12 19 19 16 11
10 11 11 17 26 25 25 23 25 24 24 23 21 19 17 14 12 9 7 7 1 2 4 3 7 17 16 16 11 3 3 5 4 6 5 4 4 3 4 5 5 2 4 6 6 4 17 17 19 18 15 12 8 9
6 6 9 11 15 18 20 25 25 22 24 24 23 21 21 18 16 14 13 10 5 3 2 5 14 14 18 17 17 16 17 13 5 1 2 3 3 6 4 6 8 5 5 8 14 18 19 14 11 14 7 6 4 6
6 6 6 6 8 13 18 22 23 26 24 23 22 21 20 19 17 16 17 18 14 5 3 3 5 14 14 12 17 19 19 7 2 1 2 4 3 2 3 1 3 7 15 8 15 17 13 19 8 7 6 3 8 4
6 5 4 3 3 4 7 15 21 23 25 26 23 22 21 18 15 10 2 19 28 20 2 2 3 3 14 22 20 19 17 5 4 4 4 3 5 5 4 7 9 14 10 13 11 11 16 9 12 6 5 5 9 6
6 5 4 3 3 3 2 4 10 17 21 22 24 25 23 20 20 7 5 4 16 23 2 3 3 2 4 2 3 3 7 2 3 3 4 3 4 4 2 11 18 14 9 13 19 16 6 4 4 5 8 10 12 9
6 5 7 6 6 7 7 5 2 7 13 17 16 13 15 15 11 4 4 8 16 6 3 2 3 3 3 1 1 5 2 2 2 2 1 1 2 2 5 11 10 7 10 11 2 6 5 5 7 6 10 10 6 2
9 6 6 4 2 0 4 7 9 8 7 10 12 11 11 3 4 5 9 11 7 3 3 2 2 2 1 1 1 2 2 1 2 2 2 3 2 6 7 7 7 8 1 4 9 8 9 8 6 7 6 8 4 2
13 9 5 6 3 3 4 6 12 19 23 17 7 5 2 3 17 12 3 3 3 3 2 2 1 2 3 1 1 1 1 2 2 4 1 3 6 10 12 13 8 6 6 8 6 3 3 4 5 7 7 5 4 4
14 13 10 9 6 6 6 9 14 10 4 3 4 2 7 11 2 3 2 1 1 2 3 2 3 1 2 2 2 1 1 1 2 4 3 3 3 4 4 5 7 7 7 4 6 6 7 7 10 11 10 9 11 10
16 16 13 10 9 8 9 10 12 4 4 4 13 10 5 1 2 2 3 2 3 3 3 2 2 1 2 1 2 1 1 1 5 3 1 3 4 4 5 7 10 8 9 7 10 7 14 16 18 16 13 14 11 12
19 18 16 13 12 11 12 14 5 15 10 4 5 3 2 1 3 4 5 3 2 1 0 1 2 2 2 3 1 1 3 4 2 1 3 4 4 7 7 6 7 10 10 10 11 13 15 18 23 22 18 24 16 13
19 17 17 15 14 13 14 12 8 3 2 3 2 3 4 3 3 1 1 2 1 1 2 3 2 2 1 2 1 2 4 1 3 3 4 3 5 6 7 6 8 8 5 7 9 13 16 18 19 25 21 23 14 15
17 16 18 15 14 12 11 11 7 4 3 2 2 3 4 2 3 2 2 2 1 1 2 2 2 2 1 1 3 1 3 4 5 4 2 2 3 4 3 4 6 6 6 6 12 12 17 21 20 19 21 20 18 14
19 17 11 14 13 12 10 13 5 2 3 2 1 1 1 3 2 1 1 2 1 1 2 2 2 2 3 3 2 6 2 6 3 1 3 2 2 3 4 5 7 11 12 14 19 22 22 21 19 18 20 20 18 18
15 5 14 15 16 15 12 5 2 3 2 1 2 0 2 2 1 3 3 2 5 3 2 2 2 9 1 2 3 4 5 3 2 3 2 4 5 7 6 10 15 16 15 19 21 23 24 26 12 15 14 20 18 15
5 15 20 20 21 16 4 1 3 2 2 3 2 3 1 1 1 2 3 1 2 2 2 4 2 2 5 5 4 4 2 2 2 2 3 7 8 13 17 13 21 22 21 22 25 26 24 12 10 15 19 16 12 12
13 17 19 23 15 4 3 1 1 1 4 2 1 2 2 2 5 4 5 7 6 4 2 1 3 4 5 3 3 4 3 2 3 4 5 14 19 18 21 22 23 22 21 21 20 20 19 14 15 19 17 12 10 14
11 20 24 19 5 3 2 0 0 1 1 3 2 2 3 3 2 3 3 3 1 1 3 4 4 5 3 4 3 2 3 4 3 6 9 10 17 18 19 20 19 23 22 22 21 22 17 16 17 18 16 9 12 11
17 19 18 11 3 3 1 2 1 1 2 2 3 3 3 1 3 4 3 4 3 3 3 6 10 10 10 16 19 17 15 15 10 7 9 8 19 19 19 21 22 22 15 12 12 18 15 14 17 16 13 8 5 8
9 18 5 3 2 2 0 4 3 3 2 2 1 1 0 1 3 3 3 4 4 4 6 8 8 7 8 8 14 20 22 23 22 17 19 19 6 8 11 17 16 12 16 17 19 17 16 21 17 12 12 12 10 7
16 8 4 2 2 2 5 4 2 3 2 3 1 1 3 2 3 4 2 4 5 9 13 11 16 22 17 22 21 23 26 24 14 15 17 16 19 19 18 19 17 14 14 20 18 17 16 13 13 12 12 9 10 8
8 5 4 5 4 4 2 3 2 2 1 1 3 3 3 4 2 1 4 4 6 7 5 8 13 7 10 11 4 10 18 17 14 15 18 12 7 14 17 19 20 20 20 23 19 15 10 7 7 8 7 9 10 10
4 6 4 5 3 4 4 3 4 2 4 5 3 4 3 2 2 3 4 5 3 3 5 9 8 3 4 3 6 16 18 15 10 4 12 10 16 18 18 16 17 19 21 19 7 2 0 4 9 9 9 10 11 11
5 7 9 7 5 4 6 5 6 7 4 4 5 3 1 2 2 6 3 3 3 3 3 3 4 2 3 9 3 5 12 4 5 6 14 13 16 14 11 9 8 14 17 14 11 10 9 11 12 11 11 11 12 10
6 7 4 3 3 3 1 1 1 3 5 6 3 3 3 4 6 5 3 3 2 1 1 2 6 7 5 11 16 15 9 11 12 15 21 21 20 20 21 17 13 16 21 21 16 13 11 11 13 14 14 13 12 11
5 3 7 4 3 2 5 2 5 7 5 3 2 5 6 8 6 3 3 5 4 5 8 15 18 18 18 16 15 13 18 17 18 19 18 15 13 16 18 19 22 20 17 18 12 11 12 13 15 14 13 13 12 13
3 3 3 5 3 3 5 6 5 4 4 3 4 4 5 3 4 3 10 15 18 14 15 16 18 15 15 12 11 13 13 15 11 10 12 5 2 9 19 25 21 18 16 14 14 13 14 15 16 17 15 15 11 10
4 4 3 4 6 6 5 5 4 4 3 6 6 3 6 9 26 27 25 23 17 16 16 12 8 8 9 8 9 10 10 10 7 5 2 3 6 20 19 18 18 13 12 11 11 9 10 10 10 11 13 12 11 8
2 3 3 5 7 9 10 8 7 5 2 5 7 9 12 9 16 16 8 4 4 2 3 2 6 8 7 4 2 2 1 3 4 6 7 9 10 9 11 11 10 8 7 6 6 4 5 5 5 7 7 5 3 3
2 5 6 10 10 7 3 3 4 4 4 4 9 7 9 8 7 2 8 7 5 4 7 7 6 5 8 6 5 2 1 4 4 5 7 8 8 8 7 8 7 6 6 6 6 6 6 7 5 4 4 6 7 7
3 5 8 7 3 3 4 3 3 4 6 9 8 7 7 5 3 3 7 11 9 8 8 7 7 5 7 4 4 4 5 7 7 7 8 9 9 9 8 8 8 8 8 6 7 6 6 4 5 4 7 12 13 13

GFSWCAN_925_spd_012.txt.gz
Wind_Speed
4 20 31 30 30 27 25 23 21 19 16 14 11 7 5 3 3 4 5 5 3 2 4 1 2 2 1 2 4 4 4 3 3 2 3 4 3 5 1 4 5 6 3 4 2 3 8 4 2 1 7 3 13 13
6 9 19 32 29 30 28 25 23 21 18 16 14 12 9 7 4 3 4 5 4 3 4 3 8 9 6 4 5 2 4 4 5 3 2 2 3 2 5 7 1 3 7 5 9 7 4 4 9 6 8 12 5 2
5 7 9 25 32 27 30 27 25 23 22 20 18 15 13 11 8 6 5 7 3 3 3 1 6 9 10 10 8 3 3 4 3 3 4 4 4 3 5 5 4 4 3 4 6 8 10 9 15 14 6 1 3 4
4 9 8 11 23 31 26 27 25 24 23 22 21 18 17 15 12 12 8 8 5 5 3 6 5 11 13 13 14 15 14 6 2 2 3 3 3 6 4 5 7 6 6 5 14 16 18 15 10 4 4 2 1 6
5 4 6 9 11 13 22 27 23 23 21 23 22 19 18 17 14 15 13 10 10 3 3 3 8 12 9 12 12 13 12 4 2 1 2 3 2 2 3 1 4 7 15 7 14 14 11 13 1 0 3 2 6 10
5 6 7 7 7 9 12 15 21 21 24 22 20 19 18 16 14 9 2 14 22 16 1 2 3 4 15 20 21 19 15 4 4 3 4 3 4 4 4 4 7 11 12 16 14 17 10 3 9 9 5 2 7 10
4 4 6 7 8 7 7 8 12 18 20 21 22 20 18 16 20 6 4 5 14 22 2 3 3 3 2 2 2 2 1 3 3 3 3 4 4 4 2 9 20 7 9 14 14 10 2 4 2 4 11 11 13 9
6 7 10 12 12 10 7 4 6 10 15 17 17 16 14 13 13 6 5 10 16 6 3 2 2 3 0 1 1 3 1 2 1 2 1 2 1 1 5 19 6 7 9 7 5 9 4 7 3 6 10 8 6 6
8 9 9 7 8 9 9 8 6 8 12 15 15 13 10 3 3 4 9 11 13 5 3 2 4 3 1 1 1 3 1 1 1 1 2 2 1 5 6 4 6 7 4 7 9 8 7 6 7 8 10 9 6 7
12 10 9 8 8 10 11 16 20 19 18 23 11 4 2 1 11 12 1 2 3 2 2 2 2 3 3 2 0 0 1 2 2 3 1 3 5 8 16 16 9 6 7 7 8 7 7 4 5 6 8 8 7 7
14 11 10 9 10 13 15 17 15 12 9 3 3 2 9 8 1 3 1 1 0 1 1 1 3 1 2 2 2 1 0 0 2 3 2 2 2 4 7 8 7 7 11 10 9 8 7 4 5 8 9 11 15 17
16 14 13 11 11 13 14 13 7 7 6 7 16 10 4 2 2 1 2 0 2 4 3 3 2 2 1 1 2 1 1 2 4 1 1 3 3 5 8 9 8 10 8 4 4 10 12 10 13 14 13 15 18 20
17 16 15 13 12 12 15 12 18 21 15 6 5 3 2 1 1 5 6 3 2 2 3 1 1 1 2 2 1 2 1 4 1 1 3 3 2 3 4 2 2 2 3 4 6 11 13 15 20 21 17 22 22 19
18 17 15 13 14 15 16 13 14 7 3 3 3 2 3 2 3 3 2 2 1 1 2 3 2 2 1 2 1 3 3 2 2 3 5 2 2 2 2 3 5 7 9 10 13 18 17 19 21 27 25 22 16 13
18 17 15 14 15 15 15 11 6 3 3 3 3 3 4 2 2 1 1 1 1 1 2 2 2 2 1 2 2 0 3 3 4 4 3 2 2 3 5 6 6 6 7 10 16 14 18 22 21 22 30 24 15 19
21 19 15 17 16 14 14 12 6 2 3 3 2 2 1 2 2 1 1 1 1 1 2 2 2 3 3 3 2 5 5 6 4 3 3 2 4 6 6 6 10 16 16 17 19 21 22 22 21 23 27 17 22 22
20 6 19 19 18 17 15 5 2 4 3 2 1 2 3 2 3 3 2 2 5 2 2 3 3 9 1 2 3 4 5 4 3 3 3 5 6 5 7 11 15 18 18 20 21 22 22 25 27 18 11 21 20 23
10 22 22 22 21 18 5 2 3 3 2 2 2 3 2 2 3 2 3 2 2 2 2 3 2 2 5 5 4 3 3 3 3 3 3 3 5 11 14 14 20 20 19 22 23 26 24 24 16 15 18 17 20 19
24 26 26 23 16 5 3 0 1 2 4 2 1 1 2 2 2 2 4 4 1 1 2 2 1 4 4 3 3 3 3 1 2 7 9 14 15 17 21 22 21 20 21 21 22 20 21 22 22 24 20 16 14 11
20 20 22 14 6 3 3 2 1 3 1 3 2 1 2 3 2 2 3 2 2 1 3 4 4 4 4 3 3 3 3 4 2 5 10 9 16 18 19 19 17 21 21 21 21 23 19 21 21 21 21 18 10 8
21 21 14 9 3 4 4 2 1 3 1 1 2 3 2 2 2 3 3 2 2 2 2 6 6 8 12 17 17 17 13 12 7 5 8 9 17 14 18 21 22 21 15 16 16 17 18 16 21 18 18 13 8 10
11 14 7 5 3 3 2 1 3 1 2 2 1 1 1 1 2 3 3 3 3 5 5 6 8 7 6 6 16 19 21 24 22 19 20 21 7 7 9 15 14 12 16 15 17 17 20 19 20 17 10 7 7 6
14 7 4 2 3 2 4 0 2 1 2 3 2 2 3 1 3 3 1 3 4 7 15 12 16 21 18 23 22 24 27 23 14 14 18 19 20 19 17 17 15 14 15 18 17 19 20 21 20 15 11 8 8 10
10 4 3 4 3 3 1 2 1 1 3 2 2 3 3 3 1 2 3 3 6 6 3 10 14 7 9 10 5 13 20 19 16 18 18 16 10 12 13 15 17 18 19 23 21 21 19 16 6 5 7 6 11 11
5 2 4 4 2 3 3 1 2 2 4 4 3 4 3 2 2 3 4 6 4 4 6 10 8 6 6 5 6 16 14 10 10 4 16 8 10 15 16 16 17 19 22 21 16 17 8 6 7 9 9 9 12 12
3 6 8 8 2 5 5 5 5 7 4 3 6 3 2 3 2 5 3 3 4 3 4 4 4 2 3 9 3 6 10 13 11 6 10 8 12 12 10 8 9 16 16 14 15 16 15 12 12 14 15 14 14 14
4 6 3 3 3 3 1 2 0 3 5 6 3 2 3 3 6 5 3 5 3 6 3 4 9 9 8 14 17 22 20 10 8 12 18 18 19 20 20 15 14 18 24 24 23 19 17 15 14 14 18 18 18 17
5 4 7 4 3 2 4 2 4 6 5 4 3 4 7 8 6 4 4 3 4 5 8 12 16 20 22 20 13 4 6 11 15 16 18 16 15 12 11 13 22 23 25 22 20 19 18 17 17 16 19 19 18 16
3 2 3 4 1 3 5 6 6 4 4 4 5 4 5 4 4 4 14 16 19 19 18 18 21 17 14 12 11 12 14 12 10 8 9 6 3 7 13 16 18 18 18 15 15 14 15 15 17 19 19 20 19 15
4 3 3 3 6 7 5 6 4 4 3 7 3 2 3 4 21 24 22 23 19 16 16 13 11 6 5 6 8 10 6 6 5 3 1 2 5 15 11 14 14 14 12 9 8 9 10 11 10 7 6 7 11 12
1 3 0 3 5 5 7 4 5 2 1 4 5 6 9 6 6 3 6 7 5 4 3 2 3 5 5 6 5 2 1 1 3 6 7 6 6 6 7 7 8 8 8 8 8 9 11 9 7 8 8 8 6 4
1 5 4 5 8 4 0 3 4 4 4 2 7 2 2 1 3 2 14 11 10 10 11 11 10 8 9 5 3 0 0 1 3 3 5 5 6 6 7 6 6 6 6 5 5 6 7 7 6 5 1 3 4 6
2 2 3 3 4 4 4 0 3 4 2 5 8 8 6 4 3 2 10 14 12 13 13 13 8 6 5 4 3 6 6 6 6 6 6 7 7 8 9 9 8 7 5 4 4 5 5 5 6 6 9 11 11 10

GFSWCAN_925_spd_015.txt.gz
Wind_Speed
4 25 35 33 31 28 25 22 20 18 16 13 10 7 4 3 4 3 5 4 3 3 3 4 2 4 2 3 4 4 4 3 3 2 3 3 3 5 1 4 5 5 3 5 2 3 8 5 1 5 8 3 4 5
5 6 33 36 33 31 29 26 22 21 19 16 13 10 6 3 3 4 3 4 4 3 2 4 5 6 4 7 5 2 4 4 4 3 2 2 3 1 4 4 3 4 8 4 9 6 4 5 5 7 4 6 3 1
8 8 13 35 35 33 31 29 26 23 20 18 16 13 10 6 4 3 4 4 3 4 3 3 5 10 12 13 11 4 3 3 4 4 4 3 4 3 4 5 3 4 4 4 5 6 15 10 14 15 5 3 2 2
6 7 8 17 38 35 32 31 28 26 24 21 19 16 13 10 8 6 4 4 2 6 2 5 4 7 6 12 17 19 9 4 6 3 3 3 3 6 4 5 7 6 3 5 10 16 14 14 6 6 1 5 7 10
1 3 6 8 22 35 33 30 31 28 26 23 21 20 16 13 11 9 8 8 8 2 3 4 10 10 11 12 18 17 15 4 3 1 2 3 2 2 2 2 4 6 7 6 10 15 13 14 3 3 8 7 2 4
3 2 2 4 8 20 32 33 30 30 27 24 23 20 18 16 14 6 2 13 17 11 2 2 5 5 5 6 13 11 12 3 3 3 3 3 3 4 4 4 6 10 8 13 14 14 6 5 8 5 8 2 9 11
3 2 2 4 4 6 10 19 28 28 25 25 20 20 19 17 18 6 4 3 16 17 2 3 3 3 3 1 2 2 0 2 3 2 3 3 4 4 2 10 11 10 9 10 9 4 5 10 3 5 7 12 13 16
5 5 6 7 7 7 7 9 13 20 24 24 22 18 15 17 16 8 9 3 18 6 3 3 2 3 0 1 1 3 0 1 1 2 1 2 1 2 4 6 5 4 5 2 5 7 8 9 1 7 14 13 10 9
8 8 7 7 7 7 7 9 12 13 16 18 17 17 14 4 4 3 6 9 8 3 3 2 3 3 1 0 1 2 2 1 1 1 2 1 1 4 3 4 7 5 5 6 11 12 13 11 7 6 6 8 9 11
8 10 8 6 5 6 7 11 15 19 21 23 14 4 2 2 12 11 3 2 3 3 2 2 1 1 1 1 1 1 2 1 2 2 2 2 2 3 10 7 6 8 11 7 6 6 2 3 4 7 7 8 9 10
10 9 8 7 11 15 18 22 24 29 20 4 4 2 9 6 3 4 2 2 1 1 1 1 2 1 2 2 2 1 1 1 2 3 2 2 2 4 7 10 10 13 14 9 7 3 7 8 9 7 8 11 15 16
14 10 10 10 13 15 12 10 11 6 5 9 18 10 4 3 2 2 1 1 1 3 2 2 2 2 0 1 2 1 1 1 4 2 1 2 2 2 4 6 5 4 2 5 6 8 12 13 17 14 14 17 21 25
17 15 13 11 12 14 12 8 16 28 23 8 5 3 2 2 1 5 6 2 2 2 3 2 1 1 1 2 2 2 2 4 1 1 3 3 3 3 2 1 2 5 6 7 12 15 16 19 23 22 19 26 28 24
20 18 15 14 15 18 16 18 13 7 3 3 3 3 3 2 2 3 3 2 2 1 2 3 2 1 1 3 1 2 2 1 2 2 5 1 2 2 3 3 3 6 10 12 15 18 20 20 21 27 26 26 23 23
22 20 16 14 18 15 16 12 7 3 4 3 3 3 3 2 1 1 1 1 1 2 2 2 2 2 1 2 1 0 1 3 4 4 2 3 4 3 3 4 6 6 9 11 16 16 21 23 22 23 30 28 25 28
24 20 16 17 17 15 12 9 4 3 4 3 4 3 1 2 1 1 1 1 1 2 2 3 2 3 3 3 2 5 5 6 4 3 3 2 3 3 5 7 13 17 17 17 19 20 21 21 20 23 30 31 30 26
25 6 20 20 19 16 11 5 3 4 3 3 1 0 2 2 3 2 2 3 7 2 2 3 3 8 2 3 2 4 4 3 3 3 2 2 3 6 11 15 18 20 18 18 20 22 22 25 27 22 15 24 27 26
12 22 24 23 22 14 5 4 4 3 2 1 2 3 2 2 4 1 2 3 2 3 3 3 2 2 5 5 3 3 3 3 3 3 3 5 11 17 17 15 20 21 21 22 24 26 24 23 18 16 20 23 23 19
27 26 22 22 15 6 4 2 2 3 3 2 1 1 2 1 2 1 2 4 4 5 3 2 2 3 4 3 4 3 3 3 2 5 4 11 14 18 20 22 22 22 21 21 20 19 21 22 22 22 21 21 16 16
28 27 23 16 10 4 3 1 1 3 2 3 1 0 2 2 1 1 1 1 2 2 3 3 4 3 4 3 3 3 3 5 2 5 8 7 15 19 19 19 17 20 21 20 20 17 18 18 19 20 19 21 16 14
24 18 18 12 4 4 4 2 2 3 2 1 1 2 1 2 1 1 3 4 2 3 2 4 4 6 13 15 14 16 14 12 6 5 7 9 16 15 19 20 19 17 14 13 15 18 16 14 20 22 20 17 17 11
10 17 7 4 3 3 3 1 3 1 2 1 2 1 1 1 2 3 2 3 3 4 5 6 7 6 5 5 16 19 22 22 20 18 20 21 6 8 10 15 11 9 13 12 15 17 19 20 22 20 18 16 10 9
15 8 4 3 4 4 3 2 3 1 2 2 2 2 2 2 3 2 2 3 4 7 14 11 16 20 18 23 22 24 26 20 13 14 17 18 19 21 22 21 12 11 13 18 17 19 22 23 24 21 17 12 8 8
10 4 3 3 3 1 1 3 2 2 2 1 2 2 3 3 0 2 3 3 4 3 3 10 13 6 8 10 4 13 18 17 16 17 16 14 12 17 14 16 18 17 18 22 20 20 19 20 19 13 8 7 9 11
6 1 5 3 1 3 2 1 1 2 3 2 2 4 3 2 2 2 4 4 3 3 5 10 7 6 4 4 8 17 17 13 14 7 18 18 14 14 17 19 18 16 18 22 18 18 14 17 18 16 14 14 14 14
3 3 6 6 3 4 4 4 4 6 3 2 5 3 2 3 2 5 3 3 3 3 4 5 4 1 2 11 4 9 18 19 20 15 22 12 8 11 11 9 10 14 14 12 17 18 19 18 18 17 16 18 19 18
1 4 3 2 3 3 2 1 1 3 4 5 3 2 3 3 6 4 3 4 3 11 9 5 5 7 9 18 21 23 23 22 22 12 9 12 13 14 17 15 13 15 22 23 20 21 19 19 19 17 17 17 19 20
4 4 6 4 2 1 4 2 5 6 5 3 4 4 7 8 6 4 5 7 8 6 9 12 16 20 23 25 22 17 11 9 13 17 16 15 11 10 8 9 13 17 19 19 21 19 19 20 19 19 18 18 19 21
3 2 4 3 1 3 5 6 5 4 3 4 5 4 5 4 4 5 16 19 18 14 14 18 22 17 15 15 14 12 12 11 10 5 8 5 2 4 10 11 13 15 15 15 14 13 14 14 16 18 20 21 21 20
4 4 4 4 4 6 5 6 4 4 3 6 2 3 3 3 10 12 11 9 9 10 11 12 13 10 8 5 7 9 5 5 5 4 2 3 5 11 10 9 11 12 13 12 13 15 14 12 13 15 15 15 12 8
1 3 2 2 5 5 6 4 4 2 2 4 4 7 10 4 2 8 14 11 7 5 6 9 5 10 9 8 6 5 3 3 3 5 5 5 4 5 6 7 8 10 11 11 11 11 12 12 12 12 11 10 10 9
2 5 4 3 5 4 2 3 4 5 6 2 9 2 3 2 1 4 18 15 16 15 13 13 12 10 11 7 3 2 2 3 4 5 6 6 7 8 10 11 11 11 11 9 9 10 11 12 12 11 6 6 9 10
2 3 1 2 4 5 4 2 4 4 3 4 7 5 3 3 4 3 12 19 16 16 17 16 11 7 5 3 5 6 6 6 6 6 7 8 9 11 12 13 12 11 8 8 8 8 8 9 9 9 10 10 10 10

GFSWCAN_925_spd_018.txt.gz
Wind_Speed
4 12 29 29 27 24 22 20 18 15 13 11 7 3 2 4 4 3 8 7 3 3 2 4 2 4 2 2 4 3 4 3 3 3 3 4 3 5 2 4 5 5 4 4 1 2 8 5 2 4 6 4 4 5
4 4 19 34 31 28 25 22 20 18 15 13 10 6 3 2 3 5 4 6 6 6 3 2 3 2 2 6 5 0 2 4 5 4 2 3 2 1 4 3 2 4 7 4 8 7 4 5 7 6 2 6 5 2
4 6 7 26 31 33 29 26 23 20 18 16 12 9 5 2 2 3 7 5 4 3 3 3 2 3 8 9 6 4 3 3 2 2 4 2 3 4 4 6 5 4 4 4 2 6 13 8 12 8 3 2 2 6
6 6 7 7 33 32 32 30 27 23 20 18 15 13 9 6 4 3 3 5 6 6 3 5 5 4 3 9 12 10 5 6 7 3 2 3 2 5 4 4 5 5 3 4 7 15 14 13 12 4 5 10 8 4
1 4 7 7 12 35 35 31 30 27 23 21 18 15 12 9 7 4 4 5 5 3 3 3 12 6 6 7 12 12 6 4 2 2 2 3 2 1 2 2 3 5 7 5 10 13 10 6 10 13 13 9 4 7
3 1 9 4 5 23 36 35 31 28 26 23 20 18 15 13 11 4 2 10 13 6 3 2 3 1 2 3 5 8 9 3 3 3 3 3 3 4 3 3 4 13 13 14 15 7 4 9 13 12 4 3 9 8
2 3 6 6 5 4 28 33 32 30 27 24 23 19 17 17 17 5 4 3 17 11 3 2 3 3 3 3 3 2 1 2 3 2 2 3 3 4 1 9 8 11 9 5 4 6 4 2 3 3 4 7 10 15
2 3 4 5 5 5 5 18 34 31 27 27 22 19 18 18 19 6 5 5 21 6 3 2 3 3 2 2 1 3 1 1 1 2 1 1 2 1 3 3 6 5 4 11 11 12 8 7 4 5 12 13 7 8
5 4 6 5 3 1 1 5 11 21 28 26 23 22 17 6 5 5 8 11 15 2 3 2 4 3 2 1 1 2 1 1 1 0 1 2 1 4 4 7 7 7 5 9 9 11 10 8 6 7 8 8 7 7
8 6 3 3 4 3 7 6 11 16 19 26 17 5 1 3 15 12 4 3 2 3 3 2 2 2 2 1 1 1 2 1 2 1 2 2 1 3 6 6 7 10 10 8 6 7 6 6 8 8 8 10 10 10
8 8 6 6 8 6 10 14 19 22 27 3 4 2 8 6 5 5 2 2 0 1 1 1 2 1 3 2 2 1 1 1 1 3 1 1 2 3 1 4 4 6 6 4 3 4 8 9 8 10 10 13 16 18
10 8 7 10 11 13 17 24 28 9 7 9 17 10 4 2 2 3 2 1 2 3 2 2 1 0 1 1 2 0 2 1 4 1 1 2 3 4 4 4 4 1 3 4 5 9 15 15 17 17 17 18 20 26
13 11 9 11 11 8 7 9 6 26 20 8 5 4 2 3 2 4 6 2 2 2 2 2 2 1 1 3 2 1 2 3 1 1 3 3 4 4 4 1 4 7 8 9 12 17 19 20 24 25 20 27 28 26
16 13 11 11 13 11 11 22 20 4 2 3 3 3 2 1 1 3 2 3 1 1 2 2 2 1 1 2 1 2 1 1 1 1 5 1 3 3 2 2 3 6 12 12 14 18 20 22 23 28 28 27 25 24
17 15 14 13 16 17 16 9 5 6 5 3 3 3 2 2 1 1 0 2 1 2 2 2 2 2 1 3 1 2 1 3 4 4 2 3 3 2 3 3 7 6 12 12 18 17 21 24 22 24 30 28 28 29
20 17 14 17 15 15 12 8 6 4 4 3 4 4 1 2 1 1 2 2 1 2 2 3 2 3 2 3 2 5 5 5 3 3 3 1 2 4 5 8 13 17 18 17 18 20 20 22 22 24 31 29 27 26
25 5 19 20 16 15 12 4 3 5 3 3 1 1 3 1 3 3 2 2 7 2 2 3 3 6 2 2 2 4 5 3 4 3 2 3 4 7 12 15 18 20 18 19 20 22 22 25 25 22 17 26 26 26
11 19 23 21 18 14 7 6 4 3 3 1 2 2 1 1 2 1 1 2 3 2 3 2 3 2 4 5 4 3 3 2 2 3 3 5 13 18 17 15 20 20 20 21 22 23 23 20 16 17 21 23 23 20
24 27 25 22 14 6 3 3 4 3 2 1 0 1 2 1 2 1 2 3 3 4 4 2 2 3 4 3 4 3 2 3 3 4 4 12 16 18 19 20 21 22 20 21 19 17 20 21 20 22 24 23 18 19
28 28 23 17 10 4 3 1 2 3 2 2 2 1 2 1 1 1 2 0 2 2 2 4 4 3 4 3 4 3 3 5 2 4 6 4 12 16 18 19 17 19 21 22 20 21 20 19 17 20 22 21 19 17
27 20 17 13 4 7 4 2 3 2 1 2 0 2 1 1 1 0 1 1 2 2 3 4 4 5 13 11 10 14 13 11 6 5 6 7 11 13 18 20 20 19 18 18 15 15 14 17 21 22 21 21 21 19
11 14 7 7 5 4 3 3 3 1 2 1 2 2 2 1 1 2 2 4 4 4 4 4 6 4 5 4 14 17 18 18 18 17 19 21 4 6 10 16 14 14 15 19 19 17 17 19 23 22 21 21 20 18
13 7 5 4 4 5 2 3 4 2 3 2 2 2 2 2 3 1 2 3 4 7 10 9 14 20 16 21 19 22 24 18 12 14 17 18 19 20 21 21 16 11 11 17 17 18 20 22 21 19 21 20 18 13
7 4 3 3 4 1 2 2 2 2 3 2 3 1 3 3 0 1 3 3 4 2 4 10 12 4 6 9 4 12 16 13 15 17 18 18 13 20 23 18 11 12 17 22 23 23 22 21 20 17 20 21 18 15
5 3 5 3 1 3 3 4 1 1 2 2 2 3 3 2 2 2 4 3 3 3 4 8 6 7 4 3 7 15 9 10 13 8 21 21 24 22 20 14 13 15 15 17 19 17 18 19 19 18 20 20 18 19
3 2 4 5 3 4 5 4 4 5 3 3 5 2 2 3 1 6 3 3 3 3 3 4 3 1 2 11 4 7 18 16 11 10 21 19 18 16 8 6 8 11 12 9 15 19 20 19 21 20 20 21 21 20
3 3 3 0 3 3 2 2 2 3 3 5 3 2 3 3 6 4 3 4 3 6 9 11 9 11 9 13 17 22 19 18 17 18 13 11 15 16 17 13 10 10 13 17 18 18 20 20 19 19 20 22 21 21
4 4 7 5 2 1 4 2 4 6 4 3 3 4 7 8 5 3 4 5 9 13 12 13 16 18 16 17 21 20 18 17 12 12 14 15 11 11 9 6 9 10 15 13 13 14 15 16 16 19 18 18 21 21
2 2 4 3 0 1 5 6 5 4 3 4 5 4 5 4 4 3 5 10 13 11 11 13 17 17 19 17 16 15 11 10 8 6 8 3 3 3 8 9 7 10 12 13 12 12 14 12 11 13 15 16 17 17
3 2 3 2 5 5 4 6 4 3 3 4 2 3 4 3 3 11 14 14 11 9 10 10 8 7 7 8 7 4 4 4 2 3 1 2 4 11 11 10 8 10 13 14 14 14 12 13 14 16 16 16 16 16
1 2 2 1 4 4 4 2 4 2 1 3 3 6 12 2 6 20 26 19 14 14 16 17 14 11 13 13 11 9 4 7 6 6 5 5 5 7 8 9 10 11 12 12 11 11 13 14 14 13 11 11 13 14
1 4 4 2 4 4 4 1 2 2 3 1 5 0 4 3 3 4 22 24 20 19 19 19 16 16 13 11 3 6 6 7 8 8 7 8 8 10 11 12 12 11 10 9 9 10 10 10 11 11 10 12 13 14
2 2 2 2 4 5 3 3 3 5 3 2 3 0 1 3 4 5 14 22 19 20 22 22 15 8 8 9 9 9 8 8 7 8 8 9 10 11 12 13 12 11 9 8 8 8 8 9 10 10 11 11 11 11

GFSWCAN_925_spd_021.txt.gz
Wind_Speed
10 17 22 22 20 19 18 17 14 12 11 9 6 4 5 6 5 5 9 9 3 3 2 3 3 4 3 2 4 4 3 2 3 3 3 3 3 4 1 2 4 4 4 4 2 4 7 4 1 3 3 5 11 10
6 5 16 24 23 21 20 18 17 14 13 11 8 5 4 5 5 5 5 7 8 8 3 3 3 3 2 6 5 0 3 4 4 4 2 3 3 1 3 3 0 4 6 3 9 7 3 2 5 6 6 8 4 3
4 4 4 17 27 26 23 20 19 17 15 12 10 8 5 4 5 5 8 6 5 3 3 2 1 2 5 4 2 4 2 3 3 1 4 2 4 4 4 6 3 3 3 4 2 7 8 10 12 5 7 10 11 9
2 3 3 2 23 29 28 24 21 19 17 15 12 9 7 4 4 5 5 7 7 7 3 3 3 0 3 6 8 3 8 8 7 2 2 3 2 4 4 3 5 6 3 4 8 14 14 7 5 7 9 9 7 1
3 6 7 3 6 26 30 30 25 22 19 17 14 11 9 7 4 4 5 4 4 3 4 3 8 2 4 4 8 8 14 5 2 2 2 3 1 2 1 0 4 5 6 4 6 11 11 3 6 6 7 3 2 4
5 6 8 4 4 11 28 31 30 26 23 20 17 15 12 10 8 4 3 7 8 4 4 1 3 4 4 3 3 5 9 2 3 3 3 2 2 3 2 3 4 11 8 10 10 4 5 9 7 3 2 3 7 9
4 6 7 6 5 3 22 32 31 28 26 23 20 18 15 13 12 4 3 2 13 6 3 2 3 2 2 4 4 3 2 1 2 2 3 3 2 4 2 2 1 6 8 8 6 8 6 4 3 2 4 9 13 12
3 4 5 3 7 8 5 30 32 30 26 24 22 18 16 17 15 7 5 10 16 6 4 2 3 2 1 1 1 2 1 1 1 1 1 2 1 1 3 3 7 5 10 12 13 14 11 6 3 5 9 13 13 12
2 2 3 4 5 6 8 4 27 32 30 24 20 20 12 6 5 5 13 19 9 4 3 3 4 3 2 1 1 1 0 1 1 1 1 2 2 4 1 3 4 6 5 8 6 6 3 2 6 8 10 11 12 13
3 3 3 4 2 4 5 5 8 26 33 27 19 6 1 2 16 16 4 2 3 2 3 2 1 2 1 1 1 2 2 1 2 1 2 2 1 4 5 7 7 6 6 4 2 4 4 7 8 9 10 13 14 17
5 5 3 2 3 5 5 6 14 30 29 7 4 2 9 10 3 4 2 2 2 1 0 1 1 2 3 2 2 1 1 1 2 1 2 2 2 4 5 4 3 3 2 2 1 3 6 7 9 10 11 14 16 18
6 5 3 4 3 6 14 10 19 8 6 8 18 11 5 3 2 3 2 2 2 3 1 2 2 2 1 1 2 0 2 1 3 1 1 2 0 7 6 4 3 2 1 4 6 8 10 11 12 12 14 16 19 24
9 6 5 8 5 8 20 16 14 16 27 7 5 3 2 1 3 4 5 1 3 3 3 2 2 1 1 3 2 1 2 2 0 1 3 1 4 6 5 2 1 2 6 9 10 13 15 17 21 20 18 24 25 23
11 9 8 9 6 7 10 21 20 8 4 3 2 4 1 2 1 2 2 3 2 3 4 2 3 1 1 2 1 2 1 1 1 2 4 2 5 5 3 2 2 4 11 11 13 15 16 19 21 25 25 25 24 23
15 12 11 11 9 11 20 12 7 5 3 3 2 2 1 1 3 2 1 2 2 3 3 3 3 2 1 2 1 3 2 2 4 3 2 3 3 1 3 3 5 5 11 11 13 14 19 22 20 23 27 25 25 26
18 15 9 15 12 12 8 6 6 5 4 3 4 4 1 2 2 1 1 2 1 3 2 3 3 2 1 2 2 4 4 6 3 2 2 2 2 3 4 7 13 15 15 15 15 17 18 20 20 20 27 27 23 24
21 5 18 17 15 11 6 4 3 5 3 4 2 2 2 2 3 2 1 2 5 2 2 2 3 3 2 2 2 4 4 3 3 2 2 3 4 5 10 13 16 17 15 15 17 19 19 21 21 20 16 23 24 23
7 17 22 19 16 12 6 7 4 3 4 1 2 2 2 1 2 1 1 1 2 2 2 2 3 2 4 5 3 3 4 2 2 2 3 4 9 15 16 15 17 17 17 18 21 21 20 19 15 16 18 21 22 21
21 25 23 19 13 5 3 3 4 3 1 1 2 2 2 2 2 2 1 1 3 5 5 2 2 3 3 3 3 2 2 3 3 3 3 14 17 17 18 18 20 19 17 18 17 15 16 16 17 18 19 19 19 21
28 26 22 18 9 4 4 2 2 3 2 1 2 2 2 2 1 1 1 0 2 2 1 2 3 3 4 3 4 3 3 5 2 4 6 5 14 14 16 17 15 17 17 19 20 20 19 17 15 16 18 19 20 21
26 19 16 15 6 7 4 1 3 1 2 2 1 1 2 1 2 1 0 1 1 2 3 4 4 5 11 8 8 10 11 10 5 5 5 6 9 13 16 19 21 17 14 13 13 13 13 15 18 18 19 19 21 21
12 17 9 6 5 4 4 5 2 1 2 1 2 2 2 2 1 1 1 3 3 3 4 3 3 3 4 4 12 16 16 15 15 15 17 18 5 7 9 15 14 12 14 15 14 14 17 18 21 20 20 20 19 20
13 8 6 5 5 5 1 4 4 3 3 1 2 3 2 1 2 1 2 3 3 6 9 7 9 13 12 16 16 18 19 16 11 13 15 16 17 19 19 22 22 15 11 11 14 17 17 20 21 21 21 18 18 19
8 6 4 3 3 1 2 3 2 2 3 3 2 1 2 2 1 2 3 3 4 3 4 8 7 3 6 7 3 11 15 11 13 14 16 15 11 16 20 20 18 15 15 16 17 17 19 17 20 18 20 20 19 20
6 5 5 4 2 4 3 3 2 1 1 0 2 2 2 1 1 2 3 3 2 3 3 6 5 5 3 3 8 15 11 10 12 8 18 14 17 21 18 14 15 12 12 16 15 12 12 18 18 18 18 18 19 21
5 1 3 5 2 4 4 4 4 4 2 2 4 1 2 2 1 5 3 3 3 3 3 4 3 2 3 12 4 7 11 8 8 9 19 16 12 12 8 6 7 10 7 5 10 13 15 16 18 18 18 19 20 21
4 2 2 1 3 4 3 2 2 3 4 5 3 2 3 2 5 4 3 4 3 5 4 9 10 12 11 15 12 13 13 14 16 17 17 13 11 13 14 12 11 8 7 9 12 10 12 14 15 15 15 16 16 18
3 3 6 5 2 1 4 2 4 5 4 3 4 4 6 7 5 2 1 11 15 18 18 17 15 13 14 16 17 19 20 16 14 13 12 9 7 5 4 4 6 6 7 10 10 12 11 13 12 11 11 13 14 14
1 2 4 3 2 1 4 5 5 3 3 4 5 3 4 3 3 10 12 21 18 15 15 17 19 20 16 12 10 11 10 9 8 6 4 3 3 2 10 10 8 5 7 11 11 10 9 8 10 11 11 11 11 10
2 2 3 3 5 5 4 5 3 3 4 4 2 2 2 4 9 18 20 22 21 16 15 15 17 18 14 14 12 10 9 8 8 5 2 1 3 7 8 9 9 10 10 11 11 11 9 10 11 10 10 10 11 12
1 2 2 2 4 4 3 3 3 2 0 2 1 4 3 4 5 20 27 22 20 19 21 20 19 19 17 16 14 9 6 13 11 10 8 6 6 8 9 10 11 11 11 10 10 9 9 9 8 7 8 10 12 12
1 2 3 3 4 3 3 2 1 1 3 3 3 2 3 3 3 6 20 24 21 22 23 20 18 19 18 10 11 12 10 11 13 12 11 10 10 11 11 12 11 10 9 8 7 7 6 7 8 8 8 9 10 11
2 1 1 2 4 5 3 3 5 5 2 2 2 2 2 3 3 2 13 22 17 17 22 24 17 13 12 15 17 16 15 14 12 11 11 11 11 12 12 12 11 9 8 7 6 6 6 6 7 8 8 8 8 9

GFSWCAN_925_spd_024.txt.gz
Wind_Speed
9 23 23 22 19 17 16 15 14 13 11 9 6 4 5 5 4 4 7 6 2 3 4 1 2 4 4 4 5 6 5 2 2 2 3 3 2 3 3 1 3 4 6 4 2 4 6 1 4 3 10 14 15 14
14 9 21 22 22 18 17 16 14 13 13 11 8 5 4 4 5 5 4 8 10 6 3 2 2 2 2 2 4 6 0 4 5 4 3 3 3 1 2 3 4 5 6 3 6 7 9 10 13 12 11 11 5 4
10 8 6 23 23 21 18 17 16 14 12 11 9 6 5 4 4 3 8 6 5 3 3 3 2 0 2 1 2 3 1 3 4 3 4 2 3 5 4 5 8 7 8 4 7 10 14 12 16 8 6 6 4 4
11 9 7 5 20 23 21 18 17 16 14 12 11 8 5 4 5 5 5 6 6 6 4 2 2 2 1 3 2 1 8 8 7 2 2 3 2 5 3 4 6 8 8 11 14 15 15 6 5 7 6 4 2 3
9 9 9 5 3 19 23 23 20 17 16 14 12 10 8 5 5 6 7 5 5 0 3 1 1 2 4 1 4 5 11 6 3 2 2 3 2 3 1 1 4 11 17 6 5 8 4 5 9 7 6 2 2 6
7 8 8 8 1 6 23 24 24 21 18 16 14 12 10 8 7 3 1 4 4 5 3 2 2 1 4 2 6 6 7 3 2 3 3 2 1 3 3 3 6 7 9 9 5 7 8 10 7 5 2 3 6 11
7 7 7 7 6 2 11 28 28 26 22 19 17 15 13 11 10 2 1 2 9 5 3 1 1 2 2 2 2 2 1 1 2 2 2 2 3 4 2 4 3 1 3 5 6 9 6 2 3 4 4 9 12 16
6 7 8 6 6 9 4 19 32 30 27 23 19 16 14 14 10 3 3 11 11 6 3 3 1 1 1 2 2 2 2 0 1 1 1 2 1 2 3 3 2 6 7 7 7 6 7 7 4 5 9 12 13 13
4 5 7 8 6 6 8 6 25 31 29 26 22 19 12 6 6 6 11 15 9 2 3 2 5 4 4 2 2 1 0 1 1 1 2 2 2 5 2 4 3 8 4 8 7 4 2 2 6 8 11 12 14 15
2 4 6 7 5 4 6 7 14 30 31 30 21 6 1 5 14 18 4 1 3 2 2 2 1 3 3 3 2 3 0 1 2 1 2 2 2 1 4 7 7 9 8 6 3 1 4 7 9 11 11 14 16 18
2 4 5 6 7 1 7 6 7 17 29 8 4 2 8 15 3 4 1 2 2 1 1 2 2 3 2 2 2 1 2 2 2 2 2 2 3 5 10 9 7 6 5 3 3 5 8 9 10 11 13 16 17 18
2 4 3 3 6 4 10 15 10 10 8 9 19 13 5 3 3 3 3 2 3 4 3 3 2 2 1 0 2 2 2 2 2 1 2 3 2 11 11 8 7 6 3 2 5 8 10 12 12 13 15 16 18 21
1 3 2 1 3 6 10 7 16 31 20 8 7 3 2 1 3 6 7 2 3 4 4 3 3 2 1 2 3 2 4 2 1 2 3 0 7 10 9 7 6 4 1 5 10 11 13 13 14 14 15 19 19 20
3 3 2 3 1 9 9 13 20 9 4 2 2 4 0 3 2 2 3 3 2 3 5 4 3 2 1 2 1 2 2 2 3 4 4 3 10 10 7 4 4 5 4 7 11 13 11 14 16 19 18 20 20 20
7 4 4 5 4 11 16 12 9 3 3 3 1 3 2 2 2 3 3 2 2 4 4 4 3 1 2 2 1 2 4 4 4 2 2 6 9 7 4 4 6 6 7 9 12 12 14 17 15 17 18 17 17 21
12 7 8 9 10 15 11 7 5 3 4 2 3 3 2 2 2 1 2 3 1 2 2 2 2 3 2 2 3 5 3 5 1 2 4 7 5 4 3 5 9 11 12 13 13 13 14 15 14 17 20 20 18 16
17 4 14 14 12 9 6 6 4 3 3 3 2 2 2 2 3 2 1 3 6 2 2 2 4 2 3 3 3 4 3 0 3 4 3 4 5 5 7 10 12 12 12 13 14 14 15 15 14 14 16 19 16 17
4 13 20 15 12 6 5 7 3 3 4 2 1 3 1 2 3 3 2 3 1 2 2 1 3 3 3 3 2 3 4 2 3 3 3 4 8 10 11 14 15 14 14 14 14 15 14 13 12 15 17 20 20 18
12 18 19 15 8 6 3 4 5 3 3 2 2 2 2 2 3 3 3 3 4 3 4 1 1 2 2 3 3 3 3 3 4 4 5 10 11 13 14 14 14 15 15 15 15 14 13 14 15 17 19 18 17 18
20 24 20 17 9 4 2 2 3 2 2 2 2 3 2 2 2 2 2 2 3 2 2 3 4 3 3 3 4 3 2 4 3 7 8 7 10 10 11 13 14 15 15 15 13 12 12 14 14 16 16 16 16 18
21 14 15 14 4 7 4 1 3 2 2 2 2 1 2 2 2 1 2 1 1 2 3 5 5 5 5 4 4 5 7 9 7 7 8 7 9 10 13 15 15 13 12 12 12 13 10 13 17 15 16 18 19 21
9 13 7 5 4 3 3 4 2 2 1 2 2 0 2 2 2 2 2 3 3 4 4 3 5 5 5 6 9 10 12 11 11 13 14 14 7 9 10 11 10 11 12 12 14 13 13 14 14 16 17 19 21 22
13 8 5 4 4 3 2 2 1 2 2 3 2 2 2 2 1 0 2 3 4 5 8 8 8 8 9 9 8 11 11 11 12 13 12 11 11 11 12 12 11 11 12 14 13 13 13 14 14 13 16 18 18 20
10 6 3 2 3 3 0 2 2 2 2 2 2 2 2 1 1 1 2 3 4 3 4 7 6 4 6 6 5 7 7 8 10 9 9 9 10 12 12 13 12 12 13 13 10 12 13 13 11 14 16 17 17 17
5 3 1 4 2 3 3 3 2 2 2 2 2 2 2 2 2 3 3 3 2 3 3 3 3 4 3 4 6 9 9 9 9 7 9 9 10 13 14 13 11 11 8 9 11 10 10 13 13 13 15 15 16 17
5 3 2 3 3 2 4 4 4 4 3 3 3 2 1 2 2 4 2 2 2 4 5 6 5 3 4 7 7 13 11 5 6 8 14 11 10 10 10 9 10 10 7 7 5 9 13 12 12 12 12 12 13 15
4 2 2 2 3 4 3 2 2 2 4 4 4 4 3 3 4 1 2 7 4 11 14 12 11 10 10 14 15 13 14 17 17 18 16 14 13 11 10 11 9 7 6 8 7 9 10 11 11 12 11 10 11 12
3 3 5 4 2 1 3 3 5 5 4 3 4 5 4 5 0 3 4 11 14 15 13 12 11 13 15 15 16 16 16 16 19 18 15 12 10 6 3 3 4 6 6 7 7 7 8 8 9 9 10 11 12 10
2 3 4 4 2 2 3 3 3 3 3 4 4 3 2 3 4 7 8 14 12 13 15 17 18 19 16 15 13 13 13 14 17 13 12 6 4 4 8 7 6 5 5 6 7 6 7 7 7 8 8 8 7 5
2 2 2 2 3 3 1 4 0 1 3 1 1 1 3 4 8 9 11 14 16 15 14 12 14 15 16 17 17 15 11 14 15 13 8 7 9 11 11 10 10 9 9 8 7 7 7 6 6 4 5 5 5 5
1 1 1 2 2 1 2 3 2 1 1 2 1 3 2 4 5 11 16 12 12 13 15 15 15 15 16 16 17 15 12 14 17 14 13 10 10 11 12 13 12 12 10 8 7 6 5 4 4 4 5 6 7 7
1 1 1 2 2 1 3 2 2 2 1 1 2 2 3 3 3 3 11 13 12 14 15 15 15 14 13 11 10 10 10 12 14 17 16 15 14 14 14 14 12 10 8 7 5 4 4 4 5 5 4 5 6 7
1 0 1 2 2 1 1 2 1 2 1 1 2 2 3 2 3 2 4 10 9 12 14 15 15 13 9 9 9 12 13 12 15 16 17 16 14 14 13 12 10 9 7 5 4 4 4 5 5 5 5 6 6 6

GFSWCAN_925_spd_027.txt.gz
Wind_Speed
24 26 25 22 20 17 16 16 14 13 10 8 6 4 3 3 3 6 3 5 3 3 5 1 2 5 3 6 5 8 5 2 2 2 4 4 1 4 2 4 5 7 6 4 3 3 6 2 5 5 7 12 11 11
22 25 23 22 20 17 16 15 14 13 12 10 7 5 3 3 3 5 3 6 8 3 4 3 4 4 5 8 1 9 1 5 5 3 3 2 2 0 1 3 5 4 7 4 8 5 9 8 7 3 5 4 5 2
17 16 25 22 21 17 16 16 15 13 12 10 8 6 4 3 3 4 4 2 4 3 3 4 3 3 4 4 3 3 1 2 4 4 4 3 3 5 4 5 8 6 10 5 7 7 12 11 7 9 8 6 3 1
17 16 12 19 20 19 17 17 15 13 12 11 9 6 5 4 4 5 4 2 3 5 3 3 1 3 3 1 1 3 7 7 7 3 2 3 3 7 4 6 7 8 10 10 13 16 12 10 9 6 5 3 1 3
14 14 13 9 14 19 19 18 16 15 13 11 10 8 6 5 6 6 6 4 4 3 3 2 3 1 2 1 4 3 8 5 2 2 2 3 3 1 2 3 8 8 13 9 7 3 1 2 5 4 4 1 3 6
14 12 11 9 5 13 21 18 17 17 15 13 11 9 7 6 6 3 2 1 2 3 3 2 3 1 0 2 5 6 7 2 2 3 3 3 3 3 4 4 6 6 6 6 2 4 5 8 4 5 3 3 7 11
13 12 10 11 9 2 11 22 20 19 17 15 13 10 8 7 2 2 1 2 5 3 2 2 2 2 0 3 2 3 4 0 3 2 3 3 5 3 2 6 9 2 0 3 9 10 5 5 3 6 5 8 10 14
11 12 12 9 8 7 2 11 23 22 20 17 14 12 11 8 4 2 3 8 6 5 3 3 2 2 3 2 2 0 2 1 2 2 1 3 1 1 4 6 5 5 5 6 4 3 2 6 5 5 6 10 11 12
8 9 10 10 8 7 7 2 14 27 23 20 16 13 8 5 5 3 7 7 1 1 3 3 5 4 4 2 2 1 1 2 2 1 2 2 3 5 6 6 7 9 6 6 5 5 5 0 3 6 9 11 12 12
7 7 8 10 8 5 6 5 4 21 27 24 18 6 1 5 9 12 3 2 3 2 2 3 3 4 4 2 2 3 0 1 2 2 2 2 3 2 4 4 6 9 8 10 7 3 1 4 6 8 10 13 14 15
6 8 9 10 10 8 11 5 4 13 20 10 4 2 5 15 4 2 2 3 1 1 2 2 5 4 1 3 3 1 2 2 3 2 3 2 3 6 10 10 10 12 10 5 2 2 5 6 8 10 10 12 14 16
5 7 8 8 8 8 13 9 16 11 6 8 15 11 4 2 2 3 3 2 4 4 3 3 2 2 2 1 2 1 3 2 3 3 2 3 2 9 11 11 10 9 7 3 1 5 8 10 12 12 13 15 15 17
2 4 6 6 6 8 11 13 19 25 13 8 7 3 1 1 3 6 8 3 4 4 4 3 2 2 2 2 2 3 4 3 1 2 3 0 6 9 9 8 8 8 4 1 6 10 12 12 12 11 14 16 17 16
2 3 5 4 3 8 15 19 16 7 7 3 2 3 2 3 0 1 3 4 3 3 6 4 2 2 1 2 1 3 2 2 3 3 4 2 7 9 8 7 5 6 6 2 10 13 11 12 12 14 19 19 19 17
3 1 3 3 4 11 17 12 9 7 4 2 1 2 2 2 3 2 2 2 2 3 3 4 3 1 2 2 0 3 4 3 4 2 2 3 7 7 6 4 4 4 4 9 13 13 12 15 15 15 15 16 14 21
2 2 3 3 12 12 10 9 8 3 3 2 1 2 1 2 2 3 4 3 3 2 3 2 2 1 2 1 2 3 1 3 2 2 2 6 7 5 4 2 5 9 12 14 14 14 14 15 17 17 16 20 22 18
4 1 5 5 10 8 5 5 3 3 2 2 2 2 3 3 3 2 1 2 2 1 2 2 1 3 2 1 2 2 2 2 2 3 3 5 6 5 5 7 8 11 13 14 14 15 15 16 16 15 15 17 17 16
4 5 9 10 10 6 3 1 2 2 3 2 2 3 2 1 3 2 1 3 1 1 2 2 3 2 3 3 2 2 2 1 2 4 4 3 4 8 11 13 14 14 15 14 14 14 15 15 13 15 19 21 20 19
9 9 15 14 8 3 2 2 2 3 3 2 3 2 2 3 3 6 3 4 3 2 4 2 2 3 2 2 2 1 2 2 3 4 5 7 11 12 13 14 14 15 15 15 14 15 15 14 15 16 17 17 18 17
8 9 14 12 7 3 2 2 1 2 2 2 3 3 2 3 2 2 2 0 2 1 1 2 3 2 1 0 1 2 1 3 3 6 8 8 12 10 12 14 14 15 15 15 15 14 14 16 17 17 16 15 17 19
11 11 13 12 5 5 3 2 3 2 3 2 3 2 3 2 2 2 1 1 1 2 3 4 4 3 4 3 2 3 6 8 7 7 8 8 11 12 13 14 15 13 13 12 12 16 16 16 18 14 12 14 17 18
7 10 5 6 3 1 3 3 2 2 1 3 4 2 3 2 2 2 2 2 3 5 4 3 4 4 4 6 7 8 9 10 10 12 13 14 8 10 11 12 12 11 13 13 15 16 16 17 15 13 15 17 17 19
11 5 4 2 3 1 2 1 2 1 2 4 3 3 3 2 2 2 2 3 3 4 7 7 5 5 7 6 6 8 8 9 10 12 12 13 13 13 12 13 14 13 13 16 17 17 16 13 13 16 15 16 17 18
6 5 3 3 2 4 2 2 2 2 2 3 3 3 3 2 2 2 3 2 3 2 3 4 4 3 4 5 5 5 6 8 12 15 14 14 13 14 14 15 16 14 15 14 13 15 16 15 16 15 14 14 14 13
3 3 1 4 1 3 3 4 2 1 2 2 3 2 3 3 3 3 3 1 4 6 6 8 4 3 3 4 6 8 10 10 12 14 18 18 19 20 17 18 18 16 12 13 14 14 10 11 13 13 13 12 12 13
4 1 0 2 3 2 4 4 4 4 3 3 3 2 2 2 3 3 2 4 5 6 8 8 8 6 7 12 11 14 17 16 16 18 20 20 18 16 16 13 14 15 11 11 9 10 10 11 12 11 11 11 10 12
4 2 2 2 3 4 4 2 3 2 4 4 4 5 4 4 4 2 5 8 4 9 10 9 10 10 11 14 15 16 17 16 16 20 25 25 25 24 22 16 13 5 3 7 9 9 10 11 11 11 11 10 9 10
3 2 5 4 2 1 3 4 4 5 3 3 5 5 3 3 1 3 4 6 8 9 9 9 9 11 12 13 14 15 16 18 20 19 18 16 10 11 15 15 15 14 10 8 8 9 9 9 10 10 10 10 10 8
3 3 3 3 2 1 2 2 3 2 2 4 3 3 2 3 3 4 5 8 8 8 9 11 12 13 12 12 11 11 12 16 19 15 15 9 14 16 23 18 17 15 14 12 11 9 8 8 7 7 8 8 7 5
3 1 2 2 1 1 2 0 1 1 2 1 1 3 3 4 5 5 6 8 9 10 10 10 11 12 13 14 13 13 10 13 15 14 9 11 17 20 19 19 18 18 16 14 13 11 9 7 7 5 5 5 5 4
1 1 2 2 2 1 1 2 2 2 2 1 2 2 3 4 5 7 9 7 7 8 10 10 10 11 12 13 14 15 13 12 16 16 16 15 16 17 18 19 18 18 16 14 13 10 9 7 5 3 3 4 5 6
1 1 0 0 0 2 1 1 1 2 1 2 2 3 3 3 2 3 5 7 7 8 9 10 11 13 12 11 11 10 12 15 15 17 17 18 18 18 19 18 17 16 15 14 10 8 7 6 4 4 2 4 5 6
1 0 1 1 2 1 1 2 1 1 1 1 2 2 3 3 2 3 2 5 5 6 9 11 12 14 11 10 13 11 14 15 16 17 17 19 19 18 18 16 17 15 13 11 9 7 6 5 4 4 4 5 5 6

GFSWCAN_925_spd_030.txt.gz
Wind_Speed
33 31 27 25 22 19 18 16 14 13 10 7 4 4 4 4 6 6 4 6 4 2 3 4 3 2 1 5 4 8 4 1 2 3 3 3 1 3 0 4 7 6 6 4 3 3 6 4 8 2 5 8 6 6
34 32 28 25 21 18 17 16 14 13 11 8 5 4 4 3 4 5 3 7 10 3 4 5 7 7 7 9 1 7 2 6 5 4 3 1 1 2 4 2 4 3 6 4 9 5 6 5 8 5 7 8 6 3
32 31 27 24 21 18 17 16 14 13 11 9 6 4 4 4 4 6 6 3 4 2 4 4 3 5 5 8 6 3 2 2 5 4 4 3 3 4 4 4 3 4 8 3 3 7 10 7 13 11 7 4 3 1
20 23 28 24 21 18 16 15 14 12 11 9 7 5 4 5 6 7 4 4 4 5 4 3 1 4 4 4 5 6 7 10 8 4 3 3 3 7 5 5 5 4 5 5 10 11 3 11 9 7 5 4 4 6
23 20 19 23 21 18 16 15 13 11 10 9 7 5 5 6 8 7 7 6 4 3 3 2 2 3 2 1 3 4 9 6 3 3 2 3 2 1 1 2 4 6 8 6 7 3 0 4 6 6 5 6 2 3
20 20 18 15 20 18 17 15 15 13 11 9 7 5 4 5 5 3 2 4 4 5 3 2 3 2 0 1 5 5 3 2 2 3 2 3 2 3 2 3 6 8 7 6 2 6 6 8 7 7 7 3 3 6
19 16 17 16 13 11 18 16 14 14 13 11 8 6 3 3 4 3 1 1 4 4 3 2 2 2 3 4 3 4 7 2 1 1 2 2 2 2 2 5 6 8 2 5 10 9 5 4 4 8 8 5 3 8
18 17 15 14 13 11 7 17 17 15 14 11 9 7 5 4 3 1 6 6 5 5 2 3 2 1 2 1 2 4 2 2 2 1 1 3 1 2 4 8 10 7 9 7 7 3 4 8 6 7 2 5 7 9
13 13 14 13 10 8 8 4 16 18 16 13 9 8 4 2 1 1 4 4 3 2 3 3 6 4 4 2 2 1 0 1 1 1 1 2 2 6 7 7 6 11 7 8 7 6 6 3 1 3 5 7 8 9
14 13 13 12 9 9 5 1 6 20 19 15 9 3 0 5 5 9 2 2 3 2 2 3 4 3 4 2 2 2 1 1 2 2 3 2 3 9 4 3 5 9 7 8 8 6 2 0 2 4 7 10 10 11
13 14 15 12 11 13 11 4 8 15 18 7 3 2 3 12 3 4 1 2 1 2 3 2 6 5 3 3 2 1 3 2 2 3 3 3 3 5 7 7 6 9 12 8 4 6 3 3 5 6 7 9 8 10
11 12 12 11 10 11 11 12 17 9 6 8 13 9 4 3 2 4 4 1 3 4 2 2 1 3 2 1 3 1 3 2 4 6 2 3 1 10 9 10 10 11 9 8 5 3 4 7 9 9 7 10 11 14
9 10 10 12 12 13 15 13 15 25 17 7 6 3 2 1 3 5 7 3 3 2 2 2 2 2 2 2 2 2 5 4 1 2 3 1 6 6 8 8 8 8 12 8 3 5 8 8 8 11 11 15 17 15
8 9 9 10 10 12 14 14 10 7 7 3 2 3 1 3 0 1 2 2 2 2 4 3 2 2 2 2 2 3 1 2 3 3 3 4 6 8 7 7 7 6 8 3 3 7 6 7 10 12 15 18 18 18
6 7 8 10 7 8 7 6 7 6 4 2 1 2 3 2 2 1 2 2 2 2 2 2 2 2 1 2 0 3 4 3 2 1 2 5 6 7 8 6 4 5 4 4 7 9 10 10 11 15 17 18 17 18
5 6 7 9 10 7 6 5 8 4 3 2 2 2 1 2 1 2 3 3 2 1 1 2 2 1 2 1 2 1 1 0 2 2 3 5 5 5 5 5 3 3 6 9 11 12 13 14 14 14 14 18 23 22
4 3 4 7 7 7 5 4 4 4 3 2 2 1 1 3 3 2 2 2 3 2 2 1 2 4 1 1 1 1 2 2 2 2 4 6 5 3 3 1 3 6 9 11 13 14 14 14 16 17 15 19 19 15
3 3 5 10 10 6 3 3 2 2 3 2 2 2 2 3 2 2 2 1 2 1 1 2 2 1 1 1 1 2 2 2 2 2 3 3 3 1 5 8 11 11 12 13 13 15 15 17 16 15 18 15 17 13
1 3 9 9 4 3 2 2 2 2 3 2 2 3 3 3 4 4 3 4 4 2 2 1 0 1 0 1 1 2 2 1 1 2 2 5 6 6 8 9 12 13 14 15 15 14 14 16 15 17 18 17 13 13
2 3 10 9 4 3 2 1 1 2 2 2 3 3 3 3 1 1 2 2 1 0 1 1 1 2 2 2 3 2 1 2 1 2 3 4 8 8 7 10 11 14 15 17 17 17 15 15 16 18 18 14 12 13
6 6 10 5 4 4 2 1 2 2 3 2 3 4 3 3 2 1 1 1 1 1 2 2 1 1 2 3 3 5 5 4 3 2 4 4 8 10 11 14 15 14 14 13 12 13 17 17 17 15 15 16 15 16
5 10 3 3 3 2 1 3 1 2 2 3 4 3 3 2 3 2 1 2 2 2 2 1 2 2 1 2 3 3 4 5 6 8 10 12 6 8 11 13 13 13 13 14 15 16 16 14 15 17 16 15 16 15
10 4 2 2 3 2 2 2 2 1 3 3 2 3 2 2 2 1 2 3 2 2 4 4 3 3 4 5 4 5 6 6 6 7 9 11 13 15 16 17 16 17 16 18 18 14 12 17 17 14 15 16 15 15
6 3 1 2 2 4 2 2 1 3 2 3 4 3 3 2 3 2 2 1 1 5 3 3 2 3 4 5 3 3 11 13 10 10 13 15 15 17 18 19 20 21 21 19 21 20 16 16 14 10 12 13 14 13
2 2 2 3 1 4 4 5 3 3 3 3 4 2 3 3 3 3 2 3 6 6 6 13 12 9 5 6 11 13 19 19 16 14 17 19 20 21 20 20 21 22 26 27 20 18 13 11 11 8 10 12 13 11
2 1 2 2 3 3 5 4 4 4 4 4 3 3 2 3 3 3 2 4 5 5 5 6 7 6 6 12 10 12 16 18 18 16 17 21 22 20 19 15 14 15 22 27 23 12 6 8 8 9 11 12 11 10
4 3 2 2 2 4 3 2 3 3 3 4 4 4 3 3 4 3 4 8 4 6 7 8 8 9 9 11 11 12 13 14 16 17 21 20 8 19 19 17 16 20 23 23 21 18 14 12 10 10 11 10 9 5
2 1 4 3 3 1 3 3 3 3 2 3 6 4 3 2 3 2 4 5 5 6 5 7 8 9 9 9 10 11 11 16 16 14 16 3 14 18 23 23 23 23 22 21 21 19 18 13 13 13 10 6 6 6
2 2 3 3 2 2 1 2 2 1 2 3 3 2 3 3 4 4 5 5 5 5 6 7 8 8 8 9 10 10 9 13 17 13 13 8 14 19 26 24 24 24 24 24 21 20 19 15 12 11 8 5 5 3
2 2 1 2 1 2 2 5 2 2 3 3 2 3 3 3 5 4 4 5 6 6 5 6 6 8 9 10 11 12 10 10 13 13 10 10 17 24 24 24 27 26 26 24 23 22 18 17 13 7 4 7 7 8
1 1 2 1 2 2 2 1 1 2 1 2 4 3 3 4 5 5 5 4 4 5 6 6 7 8 10 10 12 12 12 9 15 14 14 18 19 21 23 25 25 24 23 22 22 20 16 15 12 7 7 8 9 8
1 3 1 1 2 2 1 1 1 1 2 2 2 3 4 4 3 3 3 4 3 4 5 6 8 9 11 10 9 12 12 13 15 18 19 18 18 23 23 25 23 22 23 21 18 17 12 10 8 8 10 11 9 8
2 1 1 0 1 2 2 2 1 1 2 2 2 2 3 4 3 4 3 3 3 3 5 6 8 9 10 7 11 12 12 15 16 16 18 20 21 24 25 23 20 20 22 19 16 12 9 8 8 9 9 8 7 6

GFSWCAN_925_spd_033.txt.gz
Wind_Speed
33 33 31 29 26 23 19 16 14 12 9 6 5 6 7 7 7 7 7 9 4 3 4 7 7 5 3 4 5 4 4 4 3 4 3 4 3 4 1 7 7 7 6 4 2 2 7 6 3 6 4 4 6 4
36 33 31 28 24 21 19 16 15 13 10 7 5 6 7 6 6 6 5 10 10 6 2 7 13 14 10 5 5 3 6 4 4 4 1 2 2 1 1 2 3 2 7 6 8 6 6 3 5 4 6 6 4 4
36 33 30 26 23 20 18 16 15 13 10 7 6 7 7 7 8 10 8 7 6 3 3 4 4 8 6 12 7 4 2 5 4 3 3 3 3 3 3 4 1 3 5 3 4 5 5 9 7 6 5 6 6 5
34 33 29 25 22 19 17 16 15 13 11 8 7 7 8 10 10 8 7 6 8 6 4 2 1 5 5 8 8 8 7 9 7 4 3 3 2 4 4 4 4 5 3 1 2 5 9 4 5 6 5 5 5 5
27 27 25 24 22 20 17 16 14 13 11 9 7 7 8 10 11 12 13 10 8 4 4 2 5 4 4 4 8 11 13 5 3 3 2 3 3 2 2 2 3 3 5 4 5 4 4 4 7 6 6 6 5 4
27 20 27 24 22 21 19 16 15 13 12 10 7 6 6 8 10 4 3 6 7 5 4 2 1 4 4 1 4 12 6 3 3 3 2 3 3 4 3 3 5 5 2 3 5 5 6 8 6 6 5 5 5 4
27 25 21 23 25 21 19 17 15 14 11 10 8 6 6 5 5 6 4 3 5 5 3 3 0 4 5 3 5 4 7 2 2 3 1 3 3 3 2 4 5 5 8 11 11 8 5 3 4 8 5 6 6 8
20 20 20 20 17 21 19 17 15 14 12 11 9 7 7 9 8 6 7 6 6 9 6 4 2 3 4 2 2 5 2 3 4 1 2 2 3 2 4 6 7 5 11 9 7 5 5 7 8 9 9 8 6 6
21 19 15 15 15 14 16 18 15 15 15 12 10 7 4 3 3 2 6 5 6 5 4 3 5 3 2 2 2 3 2 1 2 0 1 2 1 5 5 4 4 10 7 9 7 6 10 7 5 6 6 7 5 4
19 18 16 15 13 8 8 12 18 17 15 14 9 3 2 1 5 6 2 4 4 3 3 3 2 2 3 1 1 2 1 2 1 3 2 2 3 5 7 4 8 8 8 8 7 5 6 6 6 6 5 7 5 2
18 18 16 15 13 8 8 10 15 21 17 5 3 1 1 8 2 4 2 2 1 1 1 2 3 5 1 3 2 1 2 2 2 3 3 2 3 3 6 7 7 10 12 10 9 12 12 7 6 5 4 4 5 7
16 17 17 17 15 14 14 16 19 9 6 9 14 8 3 4 3 3 3 1 2 3 1 2 1 2 1 2 3 1 3 2 4 4 2 3 1 6 8 7 7 10 10 14 16 13 14 12 8 5 5 8 8 10
15 16 17 19 21 20 14 9 9 24 20 7 6 3 2 2 3 5 7 2 2 2 2 1 2 2 1 2 3 2 5 5 1 3 3 1 3 5 7 6 8 15 19 16 12 9 5 3 4 6 8 10 12 14
14 14 13 14 16 16 16 15 10 7 6 4 2 3 1 2 2 2 1 2 1 2 3 2 2 2 0 1 2 4 2 2 2 2 3 1 7 7 6 5 8 5 9 9 4 3 4 6 9 8 10 11 13 15
12 13 12 9 8 8 8 9 8 5 5 3 1 2 2 1 1 1 1 1 3 1 2 2 2 1 1 2 0 3 2 2 1 1 2 2 3 8 7 6 7 5 4 2 2 4 7 8 9 12 13 14 14 17
9 8 11 9 7 6 5 5 8 4 4 3 3 2 1 2 2 2 2 2 2 2 1 2 2 2 2 1 1 1 3 1 2 1 2 3 4 4 6 6 6 4 1 4 8 9 10 11 12 12 13 18 20 19
6 3 5 5 6 6 4 4 3 4 3 2 2 2 2 3 3 1 1 0 2 1 2 1 3 2 1 1 2 3 3 2 3 1 1 4 5 5 6 5 2 5 8 9 10 11 13 12 12 15 16 21 20 19
4 5 5 5 4 6 3 4 3 3 4 2 2 2 2 3 2 1 1 1 2 2 1 2 3 2 1 1 1 2 2 1 1 3 3 3 6 5 3 3 8 8 10 13 14 15 16 16 15 17 20 19 18 14
6 4 6 3 5 3 3 4 3 3 3 2 2 2 2 2 2 3 1 4 2 2 3 2 2 1 2 2 2 0 1 2 1 1 2 4 2 4 8 9 9 11 12 14 15 17 18 18 19 18 19 17 13 8
6 4 4 2 4 4 3 3 2 3 2 2 2 2 2 2 1 2 2 2 1 2 2 1 1 1 2 0 1 2 1 2 2 2 2 2 5 6 7 9 12 15 17 19 19 19 18 17 17 17 16 12 12 15
4 4 3 2 4 5 2 2 3 1 2 2 2 3 2 1 1 1 1 1 2 1 0 2 1 1 7 6 3 2 3 3 1 2 2 1 7 11 14 16 17 19 19 20 18 21 21 20 21 15 12 14 17 14
2 2 2 3 3 2 2 2 0 1 2 1 2 2 2 2 2 1 0 1 2 2 2 1 1 2 3 2 3 3 3 3 3 3 6 7 2 6 11 17 17 16 20 21 21 19 21 24 12 13 17 17 15 16
6 3 2 2 2 2 2 3 2 3 3 2 1 2 1 1 1 1 2 2 3 2 7 5 5 5 3 3 7 17 18 9 9 14 18 19 18 18 21 22 22 19 16 18 21 21 22 23 22 22 19 13 11 13
4 2 1 1 1 3 1 1 0 2 2 2 3 2 2 2 1 0 2 1 1 6 10 15 14 3 3 15 12 15 18 17 15 16 20 17 14 15 18 19 21 21 17 19 20 22 24 25 25 19 14 8 9 12
1 1 1 2 0 3 4 3 2 2 2 2 2 2 2 2 2 2 2 2 2 4 6 12 12 11 5 2 11 13 18 19 15 11 14 19 17 18 15 15 16 16 27 22 21 23 23 26 22 5 6 8 10 12
3 2 1 3 2 2 4 3 4 4 3 2 2 2 1 2 2 3 2 2 2 3 5 4 5 4 7 14 10 14 16 18 17 10 12 17 13 14 13 12 13 16 27 24 23 23 24 25 22 16 11 13 12 10
4 3 2 1 1 3 2 2 2 3 3 4 3 3 3 3 4 2 2 5 3 7 8 10 12 11 9 10 10 9 9 14 13 11 14 6 14 16 18 16 17 20 27 25 27 26 25 25 20 19 19 18 12 1
1 2 4 2 1 0 3 2 2 3 2 1 4 2 6 3 2 2 3 6 5 6 11 10 10 8 9 9 10 8 10 14 16 15 9 4 13 15 25 24 22 27 27 24 26 26 27 27 26 22 18 15 5 3
1 1 2 3 1 1 1 2 2 1 3 2 4 2 3 3 5 4 6 6 4 7 8 6 9 7 8 10 11 14 10 15 21 9 8 6 15 20 28 25 26 30 30 28 29 27 26 26 25 23 24 5 7 8
1 1 1 1 2 1 2 3 2 3 5 3 4 3 3 3 7 8 8 7 8 8 8 9 9 10 12 12 12 11 9 10 15 13 4 5 15 23 26 30 28 30 28 26 31 30 23 25 23 14 7 8 10 9
2 2 1 2 2 2 2 2 1 2 2 2 5 3 3 3 4 4 6 6 7 6 8 10 11 11 11 12 12 11 12 7 11 11 15 17 17 20 23 28 30 25 24 28 29 24 25 20 14 11 10 12 11 10
1 3 0 2 2 2 1 1 1 0 2 2 2 3 2 2 2 3 3 6 9 10 7 6 8 9 10 9 5 9 8 11 17 15 15 18 17 21 26 25 22 22 23 26 22 21 16 14 12 10 10 10 10 10
1 2 2 2 1 1 2 2 1 0 1 2 3 2 2 2 3 3 3 3 3 2 2 4 5 5 9 8 8 6 11 13 10 13 15 16 21 22 22 21 20 20 20 20 17 15 14 11 11 10 10 9 9 9

GFSWCAN_925_spd_036.txt.gz
Wind_Speed
34 35 29 28 26 23 19 16 15 13 10 9 8 8 8 7 6 7 9 6 3 3 3 5 4 4 3 3 5 4 4 4 3 4 3 3 3 4 2 5 6 7 6 4 2 2 8 6 4 7 5 4 6 6
35 32 31 29 26 23 20 18 16 13 10 9 9 8 8 7 6 8 6 11 11 5 3 8 14 14 7 2 6 2 5 4 4 4 1 3 2 2 2 3 3 2 7 6 9 6 5 5 4 2 5 6 5 6
37 34 32 29 26 23 21 19 17 14 11 10 9 9 8 8 7 8 10 6 7 4 4 4 3 9 11 12 3 5 2 5 4 3 4 2 3 4 4 5 3 4 5 3 3 4 5 4 3 4 4 5 5 4
34 33 32 29 26 23 21 19 17 14 12 10 9 10 10 9 8 9 8 7 8 6 4 3 2 5 8 10 8 5 11 9 8 3 3 3 3 4 3 3 4 5 5 4 2 3 4 2 2 6 5 6 5 5
37 33 30 28 25 23 21 19 17 15 12 10 9 9 11 12 12 14 16 13 7 5 4 1 1 6 8 9 13 14 18 5 3 3 2 3 2 2 1 2 3 4 6 4 6 6 4 4 8 6 6 5 6 5
34 32 29 27 25 23 21 20 18 16 13 11 9 8 9 12 12 4 4 7 8 5 4 2 4 6 11 11 17 14 8 4 3 3 3 2 2 3 3 3 6 4 2 4 4 3 2 7 7 6 5 7 8 7
29 28 26 24 24 24 22 20 18 16 14 11 9 8 7 7 4 7 4 2 4 5 3 3 3 5 5 5 4 3 6 2 3 2 1 2 1 3 2 4 4 5 5 6 9 9 5 3 5 8 5 7 14 15
29 23 26 25 23 22 22 19 18 16 14 12 11 12 13 14 12 8 11 8 6 11 5 4 1 4 5 2 2 4 2 3 4 1 2 2 1 2 3 6 4 3 7 6 5 2 5 9 10 8 8 12 7 6
27 27 22 20 25 22 22 20 18 16 14 13 12 11 6 4 4 3 5 6 10 6 4 2 5 4 2 2 1 3 2 2 2 1 1 3 2 5 5 4 4 7 9 9 6 7 9 8 7 8 7 6 6 4
20 17 17 16 15 21 20 19 18 17 15 14 8 4 3 2 4 4 2 4 5 3 3 2 1 2 3 1 2 2 2 1 1 3 1 2 3 5 5 4 4 6 7 9 12 8 8 8 7 5 6 6 6 3
20 17 14 11 11 14 19 20 19 21 18 4 3 2 2 4 2 4 2 3 1 1 1 1 2 3 2 3 2 1 2 1 2 3 3 2 3 3 4 6 6 10 13 12 13 13 13 7 5 5 4 4 2 3
23 23 20 18 16 16 15 18 21 12 6 7 14 8 3 4 3 4 2 1 1 3 1 2 1 2 1 2 3 1 3 2 5 3 2 3 1 1 5 7 8 12 17 17 19 12 11 11 8 5 2 3 4 6
21 25 27 26 22 16 14 13 11 21 18 6 6 4 2 3 2 5 6 1 2 2 2 1 1 1 2 2 2 2 4 4 2 2 3 2 5 4 6 8 9 14 19 16 11 10 8 5 1 2 4 6 8 10
15 18 19 20 21 20 17 15 14 9 7 4 3 4 1 1 1 1 1 1 0 2 2 2 2 2 1 2 1 3 1 1 2 2 3 1 7 7 6 5 7 5 9 10 7 5 3 2 4 6 8 10 12 14
15 12 12 15 13 13 13 11 7 7 5 3 2 2 2 2 2 1 1 1 2 1 2 2 2 2 1 2 0 2 1 2 1 1 1 2 2 3 4 4 7 5 5 6 4 5 6 7 8 11 12 12 12 16
8 8 14 11 10 9 8 6 6 4 4 3 3 2 2 2 1 1 1 2 2 1 1 2 2 2 1 1 1 2 3 2 1 1 1 4 5 3 5 5 7 5 2 4 6 7 8 11 13 14 14 15 18 16
9 5 5 8 9 10 8 4 3 5 3 3 2 2 2 4 3 1 1 1 1 1 1 2 2 2 0 1 1 3 2 2 2 3 0 1 4 5 6 6 4 3 4 5 6 9 11 13 13 14 14 18 16 15
8 6 6 7 9 7 4 5 4 3 4 2 2 1 2 2 2 1 1 1 2 2 2 2 3 2 2 2 2 3 3 1 2 3 3 4 7 7 3 0 4 6 8 10 11 13 13 15 16 17 19 20 17 15
8 4 4 9 10 4 4 4 4 3 2 2 2 2 2 2 2 2 1 4 1 1 3 2 3 1 2 1 2 1 1 2 2 2 1 3 2 2 5 8 9 10 12 15 17 19 20 20 21 22 22 18 16 13
7 7 6 7 11 4 4 3 3 3 2 1 2 2 2 1 2 2 2 3 2 2 3 2 2 2 2 1 1 2 1 2 3 2 2 3 6 6 7 8 10 13 15 19 21 23 23 22 24 24 22 16 12 16
6 8 7 5 6 6 2 2 3 1 2 2 2 2 1 1 1 2 1 2 3 1 0 2 2 2 2 4 5 5 6 5 2 3 2 1 7 10 14 18 18 18 18 18 16 18 19 19 23 27 24 17 18 21
4 6 3 4 6 5 3 3 2 1 2 2 2 2 2 2 1 2 1 2 1 2 1 1 1 2 3 5 11 13 7 11 15 18 18 17 7 9 12 15 15 13 13 15 16 16 18 21 24 25 24 27 30 22
1 2 3 2 3 3 3 4 2 2 3 2 2 2 1 2 1 1 2 1 1 6 6 4 3 11 19 15 18 23 21 17 13 13 13 13 12 13 14 16 17 13 13 15 17 18 21 25 24 26 29 28 23 20
2 2 1 1 2 1 1 0 1 2 3 2 3 2 2 2 1 1 2 1 2 6 7 10 11 8 12 13 12 13 15 14 11 11 14 11 10 12 14 14 13 16 18 18 18 20 22 24 26 27 28 24 11 10
2 2 3 2 1 2 2 1 2 3 3 3 3 1 2 2 2 1 3 2 1 2 3 12 14 11 6 5 8 10 14 14 9 6 13 13 11 12 12 12 15 15 25 23 22 23 24 25 25 27 27 24 24 21
2 3 4 5 2 3 4 3 4 5 3 2 2 2 2 3 2 3 1 1 2 2 3 6 4 3 6 7 5 7 8 12 9 8 11 10 14 13 11 10 12 13 26 27 21 23 24 25 25 26 27 27 25 25
2 4 2 1 1 1 2 1 1 3 2 4 3 2 3 3 4 2 2 5 2 7 12 12 10 9 6 7 10 10 11 13 12 7 4 10 14 16 21 15 15 19 26 26 24 22 24 26 26 26 26 27 25 20
3 3 3 1 1 1 2 1 1 2 2 1 3 2 6 4 2 2 3 6 11 12 14 14 13 12 13 11 8 8 10 12 11 7 8 3 13 9 23 22 25 26 27 25 23 25 28 28 27 29 28 26 18 3
0 2 3 2 1 1 1 2 2 1 2 2 3 2 2 3 5 3 6 9 8 11 12 12 10 8 10 12 11 10 12 16 19 6 5 3 11 16 23 28 30 32 29 26 26 29 26 23 24 25 18 10 11 11
1 1 2 1 0 1 2 3 2 2 5 4 5 3 3 3 9 10 9 7 11 14 14 12 10 9 11 10 9 9 10 12 13 13 3 5 13 17 23 27 29 26 25 25 28 28 22 20 20 14 13 11 12 12
1 2 1 2 2 2 2 2 0 1 3 3 5 3 2 2 4 7 10 9 9 9 9 10 9 10 9 8 8 7 5 6 12 12 9 11 15 18 22 23 21 20 20 22 23 20 20 18 15 12 12 12 11 11
3 4 2 2 1 1 1 0 0 1 1 2 2 3 2 3 2 2 5 8 6 8 7 5 5 6 6 5 6 5 6 10 11 10 11 13 16 18 19 19 18 18 18 21 14 15 14 12 13 11 10 10 9 9
2 3 2 3 3 3 3 3 4 2 4 2 2 2 2 3 3 2 3 4 4 4 4 5 5 4 5 6 7 7 10 10 9 11 9 12 15 17 18 18 17 15 18 16 11 11 12 12 11 10 10 9 9 9

GFSWCAN_925_spd_042.txt.gz
Wind_Speed
48 46 43 39 36 32 29 28 24 21 19 20 20 21 24 28 26 15 6 4 3 3 2 3 3 5 4 3 5 5 4 3 3 4 3 3 3 5 2 4 6 7 6 4 3 2 7 7 3 7 5 1 5 7
43 41 38 35 32 29 28 26 23 20 19 19 18 18 22 26 22 18 3 12 12 5 3 7 15 13 2 4 6 2 4 4 5 5 1 3 2 2 2 3 2 3 6 5 8 6 4 6 3 1 2 3 4 6
40 38 35 32 29 29 27 24 23 20 19 19 17 17 21 22 22 21 15 10 9 4 4 4 4 7 15 3 4 5 2 5 3 2 4 3 3 4 4 5 3 4 4 3 2 4 7 8 4 4 5 5 4 5
35 34 32 30 28 28 25 23 21 20 19 18 18 18 20 18 16 20 12 8 9 4 4 2 7 5 12 4 2 2 13 8 7 3 3 3 3 3 3 3 3 4 5 4 5 8 3 8 7 4 4 4 5 5
31 31 30 27 27 26 24 21 19 20 19 20 19 19 18 19 21 25 23 15 9 5 4 1 1 10 15 13 18 19 18 6 3 3 2 3 3 4 1 2 3 5 7 5 6 6 4 5 2 6 7 5 6 7
29 29 28 28 27 25 21 19 18 19 19 20 23 24 21 18 13 7 4 12 11 7 4 2 2 5 11 15 20 14 8 4 3 3 2 1 1 3 3 3 6 4 3 1 3 1 1 2 3 4 6 6 7 9
30 29 29 28 26 23 19 17 17 17 17 19 18 14 11 9 9 9 5 2 6 6 4 3 3 4 6 5 5 4 7 3 3 2 2 2 2 3 3 4 3 4 5 2 2 3 1 1 2 5 9 14 18 19
29 28 27 25 24 17 17 17 18 19 22 23 22 22 22 19 16 12 19 11 9 12 4 4 1 3 8 2 2 4 2 2 4 2 1 2 2 2 3 4 5 3 2 4 4 4 2 7 9 10 18 19 13 10
28 27 26 25 26 19 18 17 18 19 19 19 18 14 7 8 5 3 7 12 16 9 4 3 4 3 3 2 1 2 2 3 2 1 1 2 1 4 2 4 5 3 3 4 6 8 11 12 11 12 13 13 9 5
28 27 26 26 26 22 18 17 17 17 16 13 5 7 3 4 4 4 4 4 6 4 4 3 0 2 2 1 2 2 2 1 1 3 1 1 2 2 5 5 6 6 3 7 10 7 11 11 12 11 7 4 4 5
28 27 25 24 23 23 20 17 16 15 10 4 4 2 3 5 4 4 4 4 3 3 3 1 1 3 3 2 2 1 2 1 1 3 2 1 2 2 5 8 9 12 17 17 18 15 14 9 7 4 4 4 3 3
26 22 23 22 22 21 19 18 15 5 6 8 15 8 4 5 4 6 2 1 2 3 1 2 1 2 1 2 3 0 3 1 3 3 1 2 1 4 8 9 10 13 16 15 15 11 8 6 6 5 2 1 2 3
32 29 24 19 19 18 18 16 12 21 15 6 5 4 3 3 4 4 5 1 1 2 2 1 2 1 2 3 3 2 3 3 2 2 2 1 5 7 7 9 9 10 12 12 10 10 8 6 3 2 2 4 5 7
32 30 28 25 21 17 15 18 19 11 5 4 3 4 2 2 2 1 1 2 1 2 2 3 2 2 0 2 1 3 1 2 3 3 2 0 7 7 5 3 5 5 8 9 7 5 4 3 2 3 5 8 10 12
29 30 27 23 17 17 16 15 13 9 6 3 3 3 2 2 3 1 1 2 2 1 1 3 2 2 2 2 1 2 1 2 2 3 0 1 5 5 5 4 5 5 4 4 4 3 3 4 5 8 9 10 12 16
14 20 29 17 13 11 14 16 15 6 5 3 4 4 2 3 2 2 2 2 1 1 1 2 2 2 2 2 2 2 3 3 2 0 0 2 4 3 6 6 6 5 5 5 5 5 5 7 8 10 14 17 20 21
22 12 22 15 10 11 6 4 4 5 3 3 3 3 2 3 3 2 1 1 2 2 2 2 3 3 2 2 1 1 3 2 4 1 0 3 5 5 5 4 5 7 6 6 6 9 10 11 13 17 17 21 23 25
15 17 20 17 6 7 5 8 4 4 5 3 2 2 2 2 2 2 2 2 2 1 2 2 3 3 2 3 2 2 2 2 3 2 2 3 7 10 5 4 7 8 9 11 12 13 16 19 15 14 17 20 22 20
15 16 16 18 9 5 3 5 5 3 3 2 2 2 2 2 2 4 2 3 3 1 3 2 4 2 2 2 2 1 0 1 2 2 3 6 6 10 12 12 13 14 14 14 15 13 13 14 13 16 18 19 18 20
11 13 14 15 8 4 4 3 3 3 2 1 2 2 2 2 1 2 2 3 2 2 4 2 2 2 2 1 0 2 1 3 3 5 3 6 13 16 15 13 13 12 12 14 13 15 14 13 14 18 20 21 21 23
13 17 15 10 6 10 4 2 3 2 2 2 1 2 1 1 2 2 2 2 3 1 1 0 1 1 9 9 11 11 10 6 2 2 3 4 9 13 12 14 13 14 13 13 12 13 15 14 18 21 21 21 22 25
10 13 8 9 7 5 4 8 2 1 2 1 2 2 2 1 1 2 1 3 1 1 2 1 2 2 5 6 10 14 13 17 17 17 16 11 5 7 10 11 12 12 13 13 13 13 15 17 22 25 26 26 26 25
7 8 6 11 5 6 2 5 3 2 2 2 1 2 1 1 1 2 1 1 2 3 2 4 8 13 15 13 16 18 15 14 13 12 12 12 12 11 10 11 14 15 12 14 17 16 18 22 23 27 28 27 28 26
8 5 4 4 4 0 3 3 2 2 2 1 2 2 1 1 1 2 0 0 2 3 4 10 10 8 10 12 10 11 10 11 13 14 11 10 11 12 12 11 8 11 13 13 17 19 21 23 25 27 27 27 26 24
5 6 4 4 3 5 4 3 3 2 1 1 2 1 2 1 2 2 1 2 2 3 3 6 7 8 5 5 9 10 10 8 8 11 11 12 12 10 9 9 8 8 17 19 22 22 23 23 24 25 27 26 26 26
5 3 3 1 2 3 2 2 1 3 1 2 2 1 1 3 2 2 1 2 2 3 3 4 4 5 7 9 7 5 7 6 7 11 7 9 11 12 9 8 9 12 17 16 17 20 21 22 23 24 26 24 24 24
2 1 2 1 0 1 2 1 0 1 2 3 2 3 2 2 2 2 1 6 3 7 10 10 10 10 10 10 11 9 8 6 5 9 11 8 9 10 12 11 11 14 15 14 15 15 17 19 21 22 23 20 18 18
3 2 2 3 1 1 1 1 2 3 2 1 2 1 3 4 2 2 3 7 12 13 15 15 14 15 16 13 10 9 9 9 11 10 6 5 2 2 12 13 13 13 13 13 14 15 13 15 17 17 16 15 16 15
1 1 2 2 2 1 1 1 1 1 1 2 3 2 2 2 3 4 5 10 10 12 15 15 14 12 12 10 10 10 10 7 3 4 2 3 5 2 11 14 16 16 16 16 15 14 12 11 12 11 12 12 11 11
3 1 0 0 1 2 2 2 1 2 5 4 4 3 3 3 8 6 7 8 10 13 12 10 7 5 6 4 5 5 5 7 8 5 2 3 5 10 14 17 19 19 18 17 18 15 12 12 13 13 12 12 12 12
2 1 1 2 1 1 2 3 1 4 3 3 5 3 3 2 5 11 11 12 11 9 8 8 8 7 5 5 4 3 2 4 8 8 9 10 9 11 14 16 18 18 17 18 16 14 14 14 14 13 13 12 13 12
3 3 1 2 1 3 6 4 3 2 2 2 2 2 3 3 2 4 2 3 3 5 6 6 5 3 3 3 4 4 4 7 8 9 11 10 10 12 14 16 18 17 16 16 15 13 13 13 12 11 12 12 12 12
2 2 3 2 3 2 3 3 5 3 4 3 3 1 1 3 3 1 3 5 6 7 6 6 5 4 3 4 4 5 7 10 11 10 11 10 12 13 14 15 17 17 16 15 14 13 11 10 10 10 11 11 11 12

GFSWCAN_925_spd_045.txt.gz
Wind_Speed
51 45 45 37 35 32 30 29 29 29 28 27 28 32 40 47 29 7 9 7 5 3 1 0 1 5 3 2 5 5 4 2 2 3 3 3 3 4 2 2 4 5 6 3 3 1 6 5 3 5 3 1 2 6
48 44 42 39 37 35 34 32 27 23 21 22 26 32 39 45 31 11 7 12 12 4 3 8 16 12 1 3 6 0 3 4 4 4 1 3 2 1 2 3 0 3 5 4 8 5 3 5 3 1 1 2 2 3
41 40 38 35 34 32 30 25 22 21 22 22 25 30 35 37 28 13 17 14 7 3 3 3 3 6 11 3 3 5 1 5 3 1 4 2 3 3 4 5 3 4 3 2 1 2 7 10 5 5 5 4 2 3
34 34 33 32 31 29 26 24 22 21 21 22 26 31 36 34 23 22 17 22 6 4 4 2 8 5 13 3 2 3 12 9 7 2 3 3 3 3 3 2 2 2 6 4 4 7 4 7 6 3 3 2 2 4
33 32 33 32 30 28 25 24 20 19 20 23 29 32 34 27 21 25 15 8 5 2 4 2 1 10 17 15 20 20 16 6 2 3 2 2 3 4 1 1 3 5 6 4 5 2 2 3 4 2 3 2 6 10
33 31 32 31 28 26 25 23 21 22 24 27 27 26 25 25 28 20 3 4 6 7 4 3 2 4 12 15 20 14 7 4 3 3 2 2 1 2 3 3 3 1 1 1 3 2 1 2 3 2 5 9 12 14
33 33 30 28 26 25 22 21 20 23 25 25 24 24 18 13 9 8 4 3 5 5 4 3 2 4 7 5 4 4 7 3 3 2 2 2 2 2 3 3 3 6 4 4 4 2 1 5 4 8 14 17 20 21
31 30 26 26 26 23 21 20 21 24 23 25 30 31 30 27 20 12 19 10 7 11 4 4 1 3 8 3 2 4 2 2 4 2 2 2 2 1 2 2 5 4 4 6 7 6 6 11 15 14 18 19 14 12
29 27 25 26 24 17 19 21 24 27 25 24 19 13 5 9 4 3 6 12 18 10 4 3 4 3 3 2 1 2 2 3 2 2 2 2 1 3 1 6 7 3 2 6 11 13 14 16 15 14 12 12 10 6
27 27 24 25 26 21 16 13 13 13 11 8 3 7 3 3 3 4 5 5 6 5 4 3 1 2 1 1 2 2 2 1 2 0 0 2 2 3 5 4 5 5 6 11 13 10 13 12 10 10 8 5 3 4
23 24 25 23 21 20 16 10 8 8 4 4 3 2 4 5 3 4 4 4 3 4 3 2 1 3 3 2 2 2 2 1 2 1 2 1 1 2 4 7 7 12 15 14 16 13 13 11 8 6 3 3 3 1
24 22 23 22 21 19 14 9 6 10 8 9 14 8 3 5 4 6 3 2 3 2 1 2 2 2 1 2 3 1 3 1 2 2 2 2 2 6 6 8 8 12 15 15 16 13 10 7 6 5 4 3 2 2
26 22 21 19 18 16 12 9 11 23 11 6 6 5 4 4 7 4 4 1 1 2 2 2 2 2 2 2 3 2 3 2 3 2 2 2 7 5 7 8 7 8 11 11 10 9 9 7 6 6 5 5 4 6
31 29 25 18 15 14 14 18 16 8 4 4 3 4 2 1 1 1 1 2 1 2 3 3 2 2 1 2 1 3 1 2 3 3 2 4 6 8 7 3 6 5 6 8 7 7 8 8 7 7 9 9 11 13
25 25 26 23 19 16 13 10 6 9 7 4 3 3 2 2 3 2 2 2 2 1 1 3 3 2 2 3 2 3 2 2 2 2 1 4 9 6 5 4 5 5 5 7 7 8 8 8 8 10 13 14 15 17
17 21 22 16 16 18 17 15 9 6 5 3 4 3 1 3 2 2 2 2 2 1 1 2 2 2 2 2 2 2 4 3 2 1 2 4 6 5 6 5 6 7 8 8 9 9 11 13 12 10 13 19 22 22
22 11 14 10 12 10 11 9 7 5 3 3 3 3 2 3 3 2 2 1 2 2 2 2 3 1 2 2 2 1 2 2 4 2 2 4 6 7 8 8 9 10 11 11 11 12 11 10 13 16 18 20 20 18
17 18 16 6 5 6 6 7 4 3 5 3 3 2 2 3 2 2 2 2 1 1 1 2 3 2 2 3 2 3 2 3 3 3 4 5 8 9 11 11 12 13 13 12 11 10 13 14 15 15 16 18 18 19
17 17 15 9 5 5 3 5 5 4 3 2 2 2 3 3 3 4 2 4 3 1 3 2 3 2 1 1 1 2 2 2 3 3 4 11 13 14 14 14 14 14 13 12 13 13 11 11 11 13 15 17 17 18
11 14 13 15 5 5 4 3 3 4 3 2 2 2 2 2 1 2 4 4 2 2 4 3 1 1 1 1 1 1 2 5 6 6 5 7 11 15 13 12 11 10 11 11 11 12 10 10 12 14 15 17 18 20
11 15 17 8 7 11 4 3 4 2 2 3 1 2 2 2 2 3 3 2 3 2 2 2 3 4 7 8 9 8 8 6 2 2 5 5 9 11 11 11 11 12 11 10 10 10 11 11 12 14 16 17 19 20
10 11 6 10 7 5 4 8 2 1 2 1 2 2 2 2 2 2 2 3 2 2 2 1 3 3 6 7 11 13 12 14 15 19 19 13 7 8 9 9 9 9 10 10 8 8 9 11 14 16 18 21 20 20
8 7 7 12 6 5 1 7 3 3 2 1 1 2 1 1 1 2 2 1 2 3 3 5 8 13 15 12 15 17 14 14 14 13 12 12 12 11 9 9 9 8 6 7 7 8 11 17 18 19 19 21 20 21
9 7 5 5 5 2 3 4 2 2 2 2 2 2 1 1 2 2 1 1 2 3 5 9 11 8 11 11 11 11 11 11 13 13 9 10 10 9 8 7 6 7 8 8 11 14 16 18 18 18 19 18 19 17
6 7 5 5 3 5 5 4 3 4 1 1 1 1 1 2 2 1 1 2 2 3 3 5 6 8 5 5 9 9 10 7 9 11 9 9 10 7 6 6 6 7 12 13 14 16 17 17 17 18 18 17 16 17
6 5 4 1 2 3 2 2 1 2 1 2 1 1 1 2 2 1 2 3 2 3 4 4 5 5 7 9 7 5 5 6 7 9 6 7 8 8 6 6 6 6 13 13 14 15 16 16 17 17 18 18 16 16
4 2 1 2 1 2 2 1 1 2 2 3 2 2 1 2 2 2 1 6 2 5 8 10 9 10 10 9 8 8 7 6 5 9 10 8 8 10 11 9 8 10 14 13 13 14 16 16 16 17 17 16 14 14
2 1 3 3 2 0 2 1 1 2 2 0 2 2 1 2 2 2 3 5 9 11 14 16 16 16 14 12 10 10 11 12 11 9 7 4 3 3 9 10 11 12 13 12 13 14 13 12 14 15 14 14 14 12
2 2 3 4 3 2 2 1 2 2 3 0 2 2 2 2 4 5 5 6 8 11 13 14 13 13 14 12 12 12 8 3 1 3 2 2 5 2 9 11 13 14 15 14 13 11 10 9 11 12 11 11 10 9
3 1 2 2 2 2 2 2 2 2 5 4 4 3 3 3 9 7 7 8 10 12 10 8 5 3 5 4 6 7 7 7 8 6 1 2 5 10 10 12 14 16 16 15 15 13 10 9 10 9 9 9 9 10
2 2 2 2 1 1 2 5 4 5 3 3 6 3 3 3 5 13 13 11 9 7 8 8 8 7 6 6 5 3 3 4 6 6 7 8 9 9 11 12 14 16 16 15 15 14 12 11 10 10 9 9 10 11
3 3 1 2 2 3 5 3 2 2 2 2 2 2 2 2 2 3 6 5 5 8 8 7 6 5 4 4 4 4 3 6 8 9 9 10 9 11 13 13 14 16 16 15 14 13 12 11 10 9 9 9 10 11
2 2 2 2 4 4 3 3 5 3 4 2 3 1 1 2 2 1 5 7 8 8 8 6 4 3 3 4 4 4 7 9 12 12 12 11 11 13 15 14 13 15 16 15 13 12 11 10 10 9 9 9 10 10

GFSWCAN_925_spd_048.txt.gz
Wind_Speed
36 35 34 35 35 30 42 42 45 44 42 40 40 38 37 43 55 17 4 2 1 3 5 0 2 6 5 6 7 8 6 2 2 2 3 3 2 4 3 2 4 6 6 3 3 3 5 6 6 3 3 1 2 3
28 28 31 31 35 35 35 38 37 35 34 36 35 35 37 45 52 13 4 13 15 7 4 6 8 6 2 2 6 10 1 6 5 4 1 3 2 0 1 3 3 4 3 2 6 2 3 7 4 1 2 3 2 3
33 50 48 45 46 39 37 35 34 33 31 30 31 33 39 47 44 9 14 14 10 4 4 3 3 4 6 3 1 4 2 4 4 3 4 2 3 4 4 4 3 4 4 3 2 2 7 8 9 8 9 8 5 4
41 38 38 37 35 31 28 26 25 26 27 29 31 35 40 48 37 12 10 13 14 4 4 3 4 4 10 3 2 0 9 9 7 2 3 3 3 3 3 0 3 1 8 5 5 9 6 1 2 7 5 2 2 1
32 31 31 31 29 26 23 22 22 24 26 27 28 33 39 48 33 15 19 11 12 3 3 4 3 9 12 8 11 12 15 8 3 3 2 2 3 4 1 0 3 5 3 4 2 4 3 4 6 7 3 2 4 7
34 33 31 27 24 22 19 19 21 22 25 29 33 37 41 43 29 20 3 3 8 12 4 3 2 4 9 11 17 14 8 5 3 3 3 3 1 1 3 4 4 2 2 2 2 4 3 4 6 5 6 8 11 14
34 32 30 27 26 26 27 25 22 24 31 31 37 41 36 35 26 2 4 12 19 11 3 4 3 2 6 5 4 5 8 4 3 3 2 3 2 2 3 3 4 4 4 3 4 2 5 9 6 10 15 19 22 21
33 31 30 29 28 28 27 26 28 29 30 33 35 30 24 23 18 8 11 19 19 5 2 4 2 2 8 3 2 4 2 2 5 3 2 2 2 0 2 3 4 5 5 7 8 9 11 12 14 15 18 18 14 10
30 30 33 33 34 27 28 34 34 34 34 33 29 24 14 6 3 4 8 13 9 3 4 3 4 3 2 2 1 2 2 3 1 2 2 2 2 3 2 3 5 3 2 6 9 11 12 14 14 14 13 12 10 8
25 23 27 30 28 28 27 23 16 14 12 11 7 6 3 3 4 4 4 2 5 5 5 4 1 3 1 1 2 2 2 2 2 2 1 0 2 4 3 3 4 3 6 10 13 11 13 13 11 10 9 6 3 3
23 22 20 21 18 19 16 13 11 11 13 6 3 3 3 6 5 4 3 4 3 4 3 2 3 4 3 2 3 2 3 1 2 2 3 3 3 3 2 4 6 7 8 6 13 13 15 13 9 6 5 6 6 4
19 21 20 21 18 15 11 12 6 6 7 6 12 9 4 4 3 6 2 1 3 2 1 2 3 3 2 1 3 1 3 1 3 3 2 3 3 7 7 7 9 12 15 16 17 14 10 9 8 7 6 6 6 5
21 22 18 16 16 15 15 14 17 14 10 6 5 4 3 3 5 3 4 2 3 2 2 2 3 2 2 2 3 2 2 2 5 3 3 2 8 7 8 9 10 11 12 13 13 12 11 11 11 10 9 9 9 9
27 25 23 19 15 13 10 7 1 7 9 4 4 5 3 2 4 3 2 3 2 2 4 4 3 2 1 2 1 3 2 3 3 4 2 4 6 8 10 9 10 9 8 11 11 11 11 11 11 14 14 13 13 12
26 30 25 22 18 17 16 12 9 8 6 4 3 3 3 2 3 2 2 3 2 1 1 3 3 2 2 3 2 3 4 3 2 1 2 5 9 12 10 9 9 8 7 9 10 11 11 11 10 10 9 10 11 10
16 22 25 18 16 14 12 9 8 6 5 3 4 3 1 3 2 2 3 2 2 1 1 3 3 2 2 2 3 3 4 3 3 2 3 7 8 10 10 8 9 10 11 11 11 10 10 11 10 8 7 11 12 11
19 7 11 16 19 15 10 8 7 6 3 3 3 3 2 4 3 2 2 2 2 1 2 1 2 2 2 2 2 0 2 2 4 3 3 6 11 11 12 12 11 12 11 11 10 10 9 8 7 8 10 13 14 12
15 12 6 7 10 13 9 10 4 3 5 4 3 3 2 3 2 3 2 2 2 2 1 2 3 2 2 3 3 3 4 4 5 5 5 7 11 13 12 13 13 12 12 11 10 8 8 7 7 9 10 13 14 15
17 13 7 6 4 6 3 4 4 4 5 2 2 2 3 3 3 4 3 4 4 2 4 2 2 2 2 2 4 6 6 5 6 5 5 11 13 14 16 15 14 11 10 10 8 7 6 8 8 9 11 13 14 16
12 12 15 12 5 5 4 3 3 4 3 2 2 3 3 3 1 2 4 4 2 1 3 3 2 2 2 4 3 7 6 8 8 7 7 7 11 12 11 10 10 9 8 7 8 7 6 6 8 10 11 12 13 16
8 14 13 8 7 11 4 3 4 3 3 3 1 2 3 1 3 3 4 4 3 3 2 3 3 4 6 6 6 7 7 7 4 3 6 7 9 10 11 10 9 8 7 6 6 6 7 7 9 10 10 11 12 13
9 10 6 10 6 5 4 8 2 2 2 2 2 2 3 2 2 3 3 4 3 3 2 2 4 4 6 8 11 12 11 14 16 18 18 15 8 8 8 7 6 7 7 6 6 5 6 7 8 8 9 10 10 11
6 7 7 10 5 5 3 6 3 4 2 2 1 2 2 2 2 3 3 3 3 4 5 6 7 10 12 12 14 15 13 13 13 13 12 12 12 10 9 8 7 6 5 5 5 5 5 7 7 8 9 9 10 11
8 6 6 5 6 3 2 3 2 2 2 2 2 2 2 2 2 2 2 2 3 6 6 8 8 6 9 10 9 11 11 11 13 13 10 10 10 9 8 7 6 6 5 3 4 4 6 7 8 8 9 10 11 11
5 8 4 6 3 4 4 3 3 2 2 2 2 2 2 0 1 1 2 2 4 5 4 5 5 7 5 5 8 9 9 7 9 11 9 9 9 8 7 6 5 5 5 5 6 7 8 8 9 9 10 10 12 12
7 8 5 3 3 3 2 2 1 2 1 1 2 2 1 2 2 3 3 4 4 5 6 5 4 5 6 7 6 6 7 6 7 10 8 7 7 5 4 3 2 2 7 7 8 9 10 10 10 11 11 11 11 13
5 5 3 3 2 2 2 2 1 1 2 2 2 2 1 2 3 3 2 6 3 7 8 10 8 9 9 9 9 8 8 8 8 10 9 8 8 7 6 5 5 5 7 8 8 8 10 11 11 11 12 12 11 11
3 3 3 3 3 3 2 2 2 3 2 2 1 2 2 3 3 3 4 6 6 8 11 13 13 12 11 10 9 9 10 10 10 8 7 6 5 4 6 5 6 9 10 10 10 10 9 10 11 12 13 12 12 10
3 2 0 3 1 3 3 3 2 2 4 2 2 2 3 3 4 6 6 6 5 7 9 10 10 9 11 12 11 9 7 5 3 3 3 2 2 2 6 6 7 8 10 10 10 10 9 10 10 10 10 9 9 8
4 4 2 2 2 3 3 3 3 3 6 5 4 4 3 4 8 8 8 9 10 9 7 6 5 5 5 4 5 7 8 8 8 6 4 3 5 8 7 8 9 9 11 11 11 11 10 8 8 7 7 7 7 8
3 2 2 2 2 2 3 2 9 7 4 4 7 4 5 4 4 10 11 9 7 6 6 7 7 7 6 6 5 4 4 6 8 7 6 7 8 7 8 9 9 10 11 11 10 10 10 9 8 8 8 8 8 8
4 4 2 1 2 2 4 2 2 2 2 2 3 2 2 2 3 3 9 7 7 8 8 7 5 5 5 5 5 5 4 6 7 10 10 10 9 8 9 10 12 12 11 12 11 10 9 9 8 8 8 8 8 8
1 2 2 1 1 1 3 2 3 2 3 2 3 2 3 3 3 3 5 9 8 6 5 5 4 3 4 6 5 5 8 10 13 13 12 12 11 11 13 12 11 11 12 12 11 10 9 9 9 8 8 8 8 8

GFSWCAN_925_spd_051.txt.gz
Wind_Speed
41 40 39 35 33 32 30 33 32 33 36 39 36 40 38 39 40 36 24 8 8 4 7 4 5 15 10 13 7 9 7 2 3 2 3 3 1 5 3 3 6 7 7 3 3 2 6 7 6 2 4 2 5 2
33 32 31 30 28 29 32 30 33 35 38 35 43 39 40 39 40 34 15 6 1 1 5 7 8 10 4 4 6 12 4 10 7 4 2 3 2 1 1 4 4 4 6 2 7 3 4 7 4 4 3 4 3 5
32 29 28 30 29 28 31 36 35 41 43 41 41 39 35 38 40 41 19 7 4 4 5 5 5 7 6 4 3 5 3 5 5 3 4 2 3 4 4 4 4 4 2 3 1 3 4 3 3 4 5 6 5 4
31 30 29 29 26 30 34 34 40 41 37 37 38 39 37 38 36 41 12 7 5 4 3 3 3 3 7 1 5 1 7 6 8 4 2 3 3 3 3 1 4 2 6 5 5 9 3 5 6 6 5 4 3 3
27 30 32 32 34 30 33 34 35 34 35 36 38 37 37 35 43 20 10 2 5 3 3 4 8 7 5 5 7 7 12 8 4 3 2 2 3 3 2 1 3 4 3 4 3 5 4 7 6 5 3 3 4 5
31 33 34 32 26 25 28 32 33 34 35 35 35 36 37 43 47 9 2 4 6 5 5 3 2 4 9 12 13 8 5 4 3 4 3 3 2 1 3 4 4 2 1 4 2 3 5 5 6 7 8 9 11 12
34 32 31 29 26 25 26 27 28 30 32 31 32 35 40 50 32 3 3 7 14 8 4 2 3 3 2 5 3 4 7 3 3 3 3 3 3 2 2 3 6 3 3 4 3 2 5 6 6 11 14 17 17 18
33 32 34 33 30 26 26 27 29 31 32 32 36 40 41 38 11 2 6 18 13 11 4 3 2 3 5 2 3 4 3 2 5 3 2 2 3 1 3 7 5 4 5 6 7 9 13 12 13 13 15 15 13 11
38 43 46 48 43 37 37 35 34 35 38 40 42 39 30 9 3 4 8 8 10 9 4 2 4 3 2 3 2 2 3 4 2 2 2 3 2 3 3 4 1 2 1 6 9 11 11 12 12 12 12 11 11 8
39 39 36 37 35 37 35 39 42 44 43 43 29 8 4 4 17 14 3 1 3 3 3 3 1 3 0 2 2 2 2 2 2 2 3 2 3 4 4 3 1 2 5 8 10 10 11 12 10 9 10 7 9 10
28 31 29 29 27 25 27 22 21 26 23 6 3 3 6 10 4 4 3 1 1 3 3 2 3 5 3 3 3 2 3 1 3 3 4 4 3 4 4 5 5 8 9 5 10 11 12 12 10 8 9 10 10 10
22 23 24 20 25 23 19 13 13 16 9 8 17 10 5 3 2 3 2 2 2 3 2 3 3 3 2 2 3 2 3 2 3 6 3 3 4 9 8 8 9 10 15 16 19 15 13 11 11 11 11 10 9 8
23 24 26 24 19 20 26 28 25 18 9 5 5 4 2 2 5 4 5 1 3 3 3 3 4 2 2 3 3 2 3 3 6 3 3 2 9 9 10 11 13 16 17 16 15 15 15 15 14 12 11 10 8 8
17 17 19 19 17 14 16 17 18 10 11 4 4 5 4 3 3 2 3 3 2 2 5 5 3 3 2 3 1 4 3 4 4 4 3 5 10 10 10 11 13 13 9 13 14 14 14 14 13 13 13 10 11 10
24 16 14 16 11 9 13 15 15 14 7 4 3 4 3 2 3 2 2 2 3 1 2 4 4 3 3 4 2 4 3 3 3 1 3 6 9 10 12 12 12 11 8 12 14 13 12 11 10 10 10 11 10 10
18 22 24 15 12 14 12 10 19 8 5 4 5 3 2 2 2 2 3 3 3 0 2 3 3 3 3 3 3 2 5 3 3 3 4 9 11 10 12 11 12 13 13 13 13 12 12 11 9 7 7 9 10 8
18 8 14 17 17 12 11 9 7 5 3 3 3 3 2 4 3 2 2 2 4 1 3 2 3 3 3 3 3 1 2 3 4 3 4 8 11 12 13 14 14 13 13 12 11 10 9 7 6 6 6 8 10 8
11 7 7 10 11 13 8 11 4 3 5 4 3 3 2 3 2 2 2 3 2 2 2 3 3 2 2 3 3 3 3 4 5 4 5 7 12 14 15 14 13 13 12 11 10 9 7 4 4 6 7 9 9 10
14 10 7 8 9 7 3 5 5 4 4 2 2 2 3 3 3 3 1 2 4 2 3 2 3 2 3 4 5 6 5 5 6 5 6 13 14 14 15 15 14 12 11 9 6 5 6 6 6 6 7 9 10 11
13 14 14 9 7 5 4 3 3 4 3 2 2 3 3 2 0 1 4 4 4 3 5 4 4 3 3 3 2 6 6 7 8 8 7 7 12 14 13 12 11 11 10 9 8 5 4 3 6 7 8 8 9 10
7 12 13 8 7 10 4 3 4 3 2 3 2 2 3 2 3 4 4 5 4 4 3 4 3 4 5 6 9 11 9 9 5 4 8 8 11 12 11 10 8 7 7 6 4 5 5 5 5 6 7 8 8 9
7 9 6 9 5 4 4 9 3 2 3 2 2 3 3 2 3 4 3 5 3 3 3 2 3 5 7 8 11 11 12 14 14 18 18 15 7 9 8 7 7 7 7 5 4 3 3 4 5 6 7 8 9 10
7 7 7 9 4 5 3 6 4 4 3 2 1 2 2 2 3 2 3 3 3 5 6 6 9 11 12 13 14 14 12 12 12 12 12 12 12 11 10 9 7 6 5 5 4 4 4 5 6 7 8 9 10 11
8 6 5 5 6 4 1 3 2 2 2 2 2 3 3 3 2 2 3 3 4 6 6 6 6 6 9 10 9 11 11 11 13 12 10 10 10 9 9 9 8 7 6 4 4 5 5 6 7 8 8 10 10 11
5 7 4 7 4 3 3 3 3 3 3 3 2 3 2 1 2 3 3 3 5 6 6 7 8 8 5 5 9 11 10 8 9 10 10 9 10 9 8 7 7 6 6 5 5 6 7 7 8 9 10 10 11 12
7 8 5 4 3 3 3 2 3 3 2 2 3 2 0 1 2 4 3 5 5 6 8 9 5 5 7 11 8 9 9 8 8 11 10 8 7 5 4 3 1 3 6 6 7 8 9 9 10 11 11 11 11 12
5 6 4 3 2 2 3 3 3 3 2 2 2 1 1 2 4 3 3 9 5 9 10 12 13 12 10 11 11 11 11 12 11 10 9 9 9 9 7 5 4 4 5 6 7 8 10 11 11 11 12 12 12 12
5 6 5 5 4 4 3 2 3 3 3 3 0 3 3 5 3 3 5 8 8 9 11 13 13 12 12 11 10 10 10 8 8 8 8 8 7 7 7 5 5 8 7 7 8 8 9 11 12 13 13 14 13 12
4 3 2 4 3 4 4 5 3 3 5 4 2 3 3 3 5 6 6 7 6 7 9 10 10 10 11 11 11 10 9 8 5 4 4 3 4 4 8 7 7 8 9 9 10 10 11 11 12 12 12 12 12 11
4 4 1 3 3 3 4 5 4 5 8 6 5 5 7 7 9 9 9 10 10 10 9 8 8 8 8 7 7 8 10 10 11 9 5 5 7 9 8 8 9 10 10 11 12 12 11 11 11 10 10 11 11 10
3 3 2 3 3 4 3 7 10 10 5 6 10 7 6 4 6 11 12 10 9 8 8 8 9 9 8 9 8 6 6 8 9 8 7 6 8 9 9 10 10 11 11 11 12 13 13 13 12 12 11 11 11 11
4 4 3 2 3 3 2 2 2 3 2 3 3 3 3 3 3 4 10 9 8 9 9 7 7 7 7 7 7 6 5 6 7 9 9 9 9 10 11 10 11 12 12 12 13 13 13 13 13 12 13 12 11 11
2 3 3 2 2 2 3 1 2 3 3 3 3 3 4 4 4 3 4 8 7 7 7 6 5 5 5 7 6 5 7 7 10 12 12 12 11 10 10 10 12 13 13 13 14 14 14 13 13 13 13 12 11 11

GFSWCAN_925_spd_054.txt.gz
Wind_Speed
44 44 42 38 34 34 35 33 31 32 35 36 38 38 26 36 50 28 27 30 8 3 10 17 17 15 14 12 7 9 6 4 3 3 3 2 2 4 3 8 8 7 6 4 3 2 6 6 5 1 4 5 5 6
42 41 38 34 32 32 32 31 28 31 35 36 42 38 24 35 39 34 19 26 28 5 3 9 15 18 9 9 7 10 4 10 5 4 2 3 2 2 2 2 9 4 6 4 7 4 4 6 7 5 3 3 3 4
33 31 30 31 30 30 27 28 28 33 33 38 42 32 30 33 34 33 29 17 12 3 3 4 7 8 11 10 5 4 2 7 5 3 3 2 3 3 3 3 3 6 5 2 3 4 7 5 7 9 9 8 9 8
29 29 28 29 29 28 28 28 32 31 33 36 40 33 32 36 35 36 24 25 12 2 3 5 2 4 8 4 6 7 4 8 6 4 3 3 3 4 3 3 3 1 7 6 5 6 2 13 10 7 6 5 4 6
30 30 28 26 27 28 31 33 33 35 31 35 38 34 34 34 31 29 26 25 14 4 3 3 5 8 4 3 4 3 8 7 3 3 3 2 3 3 1 2 1 5 2 3 1 6 6 9 7 4 6 8 9 11
28 28 28 28 25 26 30 32 33 32 40 41 38 38 36 31 28 23 3 24 14 4 4 3 2 4 5 8 8 7 5 3 3 3 2 3 3 1 3 3 5 9 8 8 4 7 11 10 10 13 13 13 13 13
28 28 29 29 28 32 31 32 35 37 37 37 38 35 33 31 30 3 1 1 6 1 3 3 3 1 3 8 3 4 7 3 3 3 2 3 2 3 3 3 10 7 8 7 5 9 7 6 11 13 15 17 19 20
25 28 28 31 32 34 33 32 38 39 37 33 31 31 29 35 7 2 4 7 8 8 3 3 0 2 2 2 3 4 3 3 4 3 2 3 3 1 2 10 9 9 9 8 9 11 15 15 16 13 15 16 13 12
28 24 23 28 31 29 30 29 30 31 32 31 31 33 29 6 2 2 6 8 13 7 3 2 2 4 2 2 1 2 1 3 1 2 2 3 3 2 5 8 8 6 4 9 11 12 13 14 13 12 12 11 10 8
49 44 38 33 32 32 31 32 34 36 37 43 42 7 3 5 19 18 2 3 2 2 3 2 4 3 1 2 2 2 1 2 2 1 3 2 3 6 5 4 3 5 6 11 12 11 12 13 12 11 10 11 13 14
50 45 44 40 39 42 41 39 40 45 53 19 3 3 12 18 3 2 1 3 1 3 2 1 3 2 3 2 3 2 2 2 3 3 3 3 3 4 6 6 7 10 10 9 11 10 11 11 10 11 12 14 14 14
39 43 47 40 36 36 48 54 41 16 6 9 18 11 6 4 3 4 2 2 1 2 1 1 3 3 2 0 3 2 3 0 2 5 3 4 3 10 9 9 9 10 14 13 16 13 13 14 17 16 14 13 14 15
33 32 34 37 35 32 27 20 31 38 30 15 7 4 3 3 5 4 6 3 3 3 3 3 3 2 2 3 3 2 3 2 6 2 3 2 9 8 9 10 12 16 18 18 18 19 19 19 17 15 14 14 14 14
29 32 32 30 26 24 21 21 14 9 9 4 4 5 4 2 2 3 3 3 1 1 5 4 2 2 2 3 2 4 2 3 3 4 3 5 10 10 10 11 12 12 10 14 16 17 16 17 17 18 17 14 13 12
19 21 26 28 23 20 14 11 14 17 8 4 3 3 2 1 2 1 1 1 3 2 2 3 3 2 3 4 3 4 3 4 4 2 3 8 11 11 11 11 13 10 9 11 15 13 14 15 15 14 13 11 10 11
15 15 22 18 16 18 19 12 13 9 4 4 5 3 1 3 1 2 2 2 4 2 1 1 3 4 3 3 3 2 6 3 3 3 5 9 10 10 11 11 12 15 15 15 15 14 14 14 13 12 12 11 8 11
22 9 15 16 21 19 12 9 6 5 3 4 3 3 2 4 4 2 3 2 4 1 2 1 3 4 2 2 2 3 2 2 4 4 5 9 10 11 11 13 15 16 16 15 15 14 13 12 11 9 8 9 8 8
14 11 11 11 11 19 11 12 4 4 6 4 3 3 2 3 2 2 2 2 2 2 2 2 2 1 2 2 3 2 3 4 4 5 6 8 10 15 15 14 16 16 15 14 14 12 10 8 7 8 7 8 6 7
17 14 14 15 10 8 3 5 4 4 4 2 2 2 2 2 2 1 2 3 1 2 2 1 3 3 3 3 4 5 4 3 4 5 7 11 14 15 15 16 17 15 13 11 10 11 11 10 9 7 6 6 6 6
16 16 18 16 7 5 4 3 4 4 3 2 2 3 3 2 1 2 6 6 6 3 5 4 4 2 3 3 3 5 7 6 6 7 7 7 14 17 14 13 12 13 12 11 10 8 7 8 7 6 6 5 6 7
9 14 15 9 8 10 4 3 3 2 3 3 2 2 3 2 3 4 4 4 5 4 3 3 2 3 7 13 12 10 9 6 5 5 7 6 11 13 13 12 10 9 9 8 9 8 7 7 5 5 5 5 6 7
8 11 6 9 5 5 4 9 3 2 2 2 2 2 3 2 3 4 2 6 3 4 4 4 3 5 7 10 12 16 14 16 18 18 17 16 6 8 9 9 9 9 9 8 7 6 6 6 5 5 5 6 7 8
7 7 6 9 5 5 3 6 4 3 3 2 1 3 3 3 3 2 4 4 3 7 8 9 13 15 14 16 18 18 16 15 13 13 14 14 14 13 12 11 9 9 9 7 6 5 5 4 4 5 6 7 9 9
8 5 5 5 6 4 2 4 3 3 3 2 3 3 3 3 2 3 4 3 6 7 6 7 7 6 12 14 9 14 13 13 13 13 11 12 12 12 11 11 11 10 8 5 5 5 4 4 6 7 7 9 10 9
6 7 5 6 4 3 4 3 4 3 4 3 3 3 3 2 2 4 3 3 7 8 9 12 12 12 6 7 11 14 17 12 12 12 14 12 11 10 10 10 10 9 8 7 6 6 6 6 7 8 9 10 10 10
7 9 6 7 4 4 4 3 4 4 3 3 4 2 1 2 4 5 3 6 6 7 9 10 6 6 8 14 9 11 13 10 12 14 12 12 12 9 6 4 5 8 9 7 7 8 8 9 9 10 10 11 11 11
6 7 4 2 2 2 3 3 2 3 5 3 2 1 0 3 4 3 4 10 5 10 11 12 13 13 11 11 12 12 13 16 14 12 10 11 12 12 11 8 7 5 6 7 7 8 9 10 11 12 12 13 12 11
5 6 5 5 4 4 3 2 4 6 4 5 2 6 4 5 4 3 4 7 8 9 11 13 12 13 14 13 11 9 8 9 9 8 10 11 10 11 10 7 6 8 6 6 7 7 8 10 12 13 14 14 14 13
4 4 2 5 4 4 6 6 4 3 6 4 3 3 3 3 5 6 8 9 10 9 9 9 9 10 11 13 14 15 14 16 9 6 6 4 5 9 10 7 6 7 7 8 9 10 10 12 11 12 14 12 12 12
5 5 2 5 4 4 5 5 5 5 7 7 6 6 8 9 11 11 11 11 11 11 10 10 10 10 10 9 9 11 13 13 13 10 5 5 7 8 8 8 8 9 9 10 11 12 12 11 13 13 13 11 11 9
4 4 3 4 4 4 6 9 12 13 8 8 11 8 6 4 7 12 14 10 10 9 9 11 12 12 11 12 11 8 7 9 9 7 8 6 7 8 9 10 10 10 11 11 12 12 13 14 13 13 13 14 13 13
4 5 4 3 3 2 0 0 2 3 3 5 4 3 4 3 3 4 13 13 10 11 11 10 9 8 7 7 6 6 6 6 7 9 9 9 9 9 10 10 10 11 12 13 13 13 14 15 15 14 14 14 13 13
2 4 3 2 3 3 3 1 3 3 4 3 3 4 5 4 4 3 5 9 8 8 7 7 6 5 6 6 6 6 7 7 11 11 11 14 15 10 10 10 12 13 13 13 13 14 15 15 14 13 13 13 14 12

GFSWCAN_925_spd_057.txt.gz
Wind_Speed
51 48 46 43 41 40 38 34 32 36 40 41 43 41 36 38 39 35 28 22 4 3 5 2 13 11 15 9 5 6 5 2 3 3 4 4 3 4 5 9 7 7 6 3 3 2 6 6 4 6 5 3 7 7
43 42 39 37 35 34 36 38 40 38 38 37 36 36 35 33 37 32 14 20 17 4 5 8 12 7 5 7 8 6 7 11 7 4 2 3 3 2 4 2 3 3 7 6 7 6 6 4 8 5 7 7 5 6
39 36 36 33 37 39 38 37 37 36 35 34 35 35 35 33 38 37 23 8 8 2 4 2 1 8 11 10 19 5 1 5 3 4 4 2 4 4 3 4 3 2 5 4 4 3 6 10 9 10 9 8 8 7
33 33 30 33 34 35 34 34 31 32 33 34 34 35 35 28 35 41 25 20 11 3 2 3 4 5 6 13 16 11 5 9 6 4 3 3 3 3 4 4 5 5 5 6 2 8 12 9 7 7 9 10 15 15
28 29 29 29 30 30 28 29 26 28 32 33 34 37 31 27 30 25 19 23 22 5 2 1 1 10 8 17 21 20 9 10 4 3 3 2 2 4 1 3 1 2 5 4 4 3 6 5 4 11 14 14 13 16
25 27 27 26 27 23 25 24 24 29 30 32 32 36 27 26 26 15 4 22 40 13 2 2 2 7 7 16 13 11 10 3 3 3 1 1 2 3 3 3 1 6 8 4 5 10 15 13 14 15 16 15 14 15
23 23 22 20 21 20 21 24 27 28 29 32 31 29 24 25 22 6 3 5 23 25 2 2 3 5 7 5 3 4 6 3 3 2 3 2 2 3 3 3 5 10 9 11 14 15 9 4 9 14 17 20 22 20
18 19 19 19 22 25 27 29 30 32 30 26 27 28 25 29 16 13 11 2 10 8 2 3 1 3 9 4 3 4 3 3 4 2 1 2 3 2 3 6 10 11 12 13 10 13 16 15 16 14 18 17 12 9
19 23 25 24 22 22 27 31 27 31 32 37 34 31 19 7 3 16 12 4 12 4 4 3 3 2 4 3 2 4 2 3 2 2 1 3 1 1 2 7 9 8 6 15 16 17 15 15 13 11 10 9 9 9
28 30 30 28 25 25 27 31 35 36 36 34 26 5 3 5 24 7 3 4 5 4 4 3 2 2 1 2 2 2 2 2 2 2 1 3 2 4 5 5 6 7 14 16 17 12 13 13 10 8 8 11 15 14
23 20 20 25 31 29 32 35 36 37 40 11 3 2 9 10 7 3 2 3 1 4 2 3 3 4 2 3 2 1 2 0 2 3 4 2 3 3 4 6 7 11 11 11 14 13 12 12 13 14 12 16 18 17
38 31 25 26 30 34 36 37 40 17 12 12 18 9 7 4 3 5 3 3 1 1 3 3 3 3 2 2 3 0 2 1 2 2 3 3 3 8 9 9 7 10 14 14 19 14 16 21 21 19 16 17 18 19
45 44 41 37 31 32 38 41 21 33 39 12 7 5 3 2 5 3 4 1 3 1 1 1 3 2 2 2 3 2 3 1 2 2 3 2 8 8 9 10 10 14 18 20 21 24 25 22 24 22 19 20 21 20
35 42 39 34 30 27 28 16 28 2 3 4 4 5 3 3 2 1 1 2 1 2 4 3 3 2 1 3 2 4 1 2 3 2 5 4 10 10 10 10 12 12 14 14 16 20 20 21 20 22 21 19 19 16
27 24 26 29 25 22 24 15 8 10 7 4 4 5 3 1 1 0 0 2 3 2 3 2 3 3 2 3 2 3 3 4 5 4 2 7 11 11 12 12 13 13 12 11 17 17 19 19 18 18 18 18 17 16
20 29 23 17 16 17 15 14 18 7 4 4 6 4 1 3 2 3 3 2 3 2 1 3 3 3 2 4 2 2 6 3 1 1 5 9 11 12 11 12 12 16 17 17 17 17 18 19 18 18 16 16 15 15
27 10 15 17 17 15 15 9 8 6 4 4 3 2 1 4 3 2 2 2 2 3 2 2 3 1 1 2 2 3 2 1 2 3 3 9 10 12 12 12 18 19 18 17 18 18 19 20 21 18 13 12 12 12
15 19 11 9 13 18 10 12 4 4 6 4 3 4 3 3 3 3 3 2 2 1 2 1 2 3 3 2 2 2 2 3 4 5 6 9 11 17 18 16 19 19 19 18 17 17 18 17 15 13 13 10 12 10
18 17 15 13 9 8 4 5 5 4 4 1 2 2 2 2 3 1 3 5 2 4 3 3 5 3 3 3 3 4 3 3 4 5 7 14 19 18 19 21 21 19 17 16 16 15 17 18 15 13 11 9 11 8
17 18 19 16 8 5 4 3 4 4 3 2 2 2 2 2 2 5 9 7 5 3 5 4 4 3 3 2 3 4 5 4 7 9 7 8 17 20 17 17 17 18 18 18 16 16 16 15 13 10 9 7 6 6
10 15 14 12 8 12 4 2 3 2 2 2 1 2 3 2 6 6 5 4 6 4 3 3 4 5 10 12 14 12 8 9 5 6 7 7 13 17 17 16 15 13 12 11 11 13 16 14 10 7 7 5 6 5
9 10 6 10 6 5 4 9 3 2 2 2 1 2 3 2 3 5 2 7 4 4 3 4 6 7 10 12 14 18 17 22 19 20 20 17 6 9 11 14 16 14 14 13 13 14 11 7 6 4 5 6 5 7
6 7 7 9 6 6 1 4 3 3 3 2 2 3 3 2 2 0 4 4 3 7 9 8 15 19 17 21 24 24 22 20 16 17 18 18 19 19 19 18 15 15 12 13 11 10 9 5 7 6 5 5 7 9
8 6 5 4 5 3 2 4 3 3 3 3 3 3 3 2 1 3 4 3 4 14 11 13 6 7 13 17 11 17 17 19 19 17 16 17 15 16 17 16 17 17 12 10 10 9 7 6 6 6 7 9 9 9
6 8 5 6 4 5 4 3 4 3 4 4 3 3 2 2 3 4 3 3 7 8 8 12 16 11 7 6 12 16 21 17 15 14 17 13 16 15 14 15 15 13 9 10 11 9 9 7 7 8 9 9 10 10
7 7 5 7 4 4 4 3 3 4 3 3 3 0 1 3 4 4 3 4 4 5 8 9 7 6 8 13 8 12 14 14 17 16 15 16 17 11 8 8 7 8 10 7 6 7 8 9 10 11 11 11 13 11
6 6 3 2 1 0 3 2 2 4 5 4 2 2 3 5 4 3 3 8 3 9 12 16 15 13 11 12 14 17 17 16 16 14 13 15 16 15 13 11 8 5 5 8 10 8 8 10 11 12 13 14 12 13
3 4 5 5 3 4 3 4 4 5 4 5 2 6 3 4 3 2 3 6 10 13 15 16 16 18 18 17 15 13 10 9 12 15 18 18 16 15 13 10 8 8 6 7 9 8 9 10 13 12 12 15 15 14
3 4 2 5 4 5 6 5 4 3 5 3 3 3 3 3 7 7 12 13 14 15 13 10 12 16 17 18 19 19 17 16 14 7 8 3 4 13 12 8 6 8 8 8 9 10 10 12 10 13 14 16 16 14
4 4 3 4 5 5 5 3 3 5 6 5 5 5 5 4 15 18 16 13 13 14 16 17 17 19 15 11 14 18 19 18 16 13 4 3 9 11 11 9 11 11 10 12 12 11 12 12 14 14 12 13 13 14
3 4 3 4 4 4 5 10 15 15 6 6 9 5 4 3 6 18 22 13 20 15 16 17 17 17 18 16 13 10 9 10 10 12 9 7 8 9 11 12 11 11 11 12 12 14 15 14 14 16 15 13 12 10
4 5 2 3 2 4 8 4 3 4 3 2 2 3 3 3 3 5 13 14 16 16 16 14 12 11 9 9 8 9 7 5 10 13 11 13 15 13 10 10 9 12 14 15 13 13 14 15 17 17 14 11 13 14
3 4 5 3 2 2 3 3 3 3 3 2 2 2 2 3 3 3 6 9 8 8 9 7 6 5 5 6 6 4 3 9 9 8 11 13 12 12 16 16 12 12 13 11 11 13 14 16 15 15 14 14 14 12

GFSWCAN_925_spd_060.txt.gz
Wind_Speed
52 52 54 54 54 53 51 49 47 45 42 41 38 38 37 42 39 42 30 14 6 3 5 4 4 7 14 15 6 4 4 3 3 3 3 4 3 6 4 7 8 7 6 3 3 3 6 6 2 7 6 3 6 5
48 49 51 51 49 48 45 43 41 38 39 39 38 38 39 40 44 42 12 26 21 2 4 15 16 15 15 19 8 4 5 5 5 4 2 2 1 2 5 3 2 2 7 7 8 6 4 3 4 3 5 7 4 7
44 45 44 42 41 40 39 37 35 35 30 41 42 35 43 40 40 36 15 17 6 4 5 3 4 5 3 17 26 5 1 5 4 5 5 3 3 4 4 4 4 2 4 4 4 2 3 4 4 5 5 8 5 5
35 36 36 36 37 37 35 34 32 31 32 40 40 39 39 38 38 33 21 17 15 3 2 3 4 3 7 10 23 14 11 8 6 3 3 3 4 3 4 4 5 5 7 6 4 3 8 5 3 8 10 10 13 12
28 29 30 32 32 32 33 35 35 35 36 37 36 37 36 34 36 22 17 33 14 3 3 3 6 9 5 8 20 22 13 7 1 3 3 3 2 4 1 3 1 3 6 5 5 12 5 4 5 9 12 10 10 16
32 33 33 34 34 35 35 33 32 32 32 31 32 31 32 29 29 20 2 17 28 11 3 2 3 6 12 16 18 13 4 4 3 3 2 3 4 2 4 3 2 2 1 5 6 7 13 11 9 9 15 12 13 15
24 26 27 28 29 30 29 30 30 30 31 30 30 30 28 24 29 6 5 4 32 17 1 3 2 3 3 5 3 2 5 4 3 3 3 2 4 2 3 3 5 4 11 15 18 18 11 1 7 10 16 17 21 20
21 22 24 21 23 25 23 23 27 28 27 26 26 28 20 26 19 7 8 13 29 8 2 2 3 2 7 3 3 2 3 3 4 2 3 1 4 2 2 3 7 8 12 11 6 9 13 15 14 12 19 19 15 11
19 19 18 19 21 22 25 28 29 27 27 27 27 24 22 9 4 8 7 5 8 8 3 2 3 2 3 3 2 3 2 3 1 3 3 4 1 3 4 12 12 13 6 13 14 18 15 15 14 12 13 11 15 11
19 22 21 24 26 26 26 27 30 31 29 28 18 7 3 7 15 18 5 2 3 2 1 2 1 3 3 2 2 2 2 2 3 3 1 3 2 1 1 4 7 13 18 18 19 10 13 13 13 12 10 10 11 12
19 22 27 26 26 26 25 28 29 27 22 12 5 2 13 23 8 2 2 3 2 1 1 2 3 3 3 4 3 1 2 1 3 2 4 2 2 3 3 6 10 14 14 6 11 12 11 14 14 14 13 16 17 16
30 29 26 23 24 22 32 29 28 27 18 8 9 12 6 4 2 4 2 2 2 3 1 3 2 3 2 3 3 2 3 2 3 2 3 2 1 7 7 7 8 11 12 12 19 16 20 20 21 20 18 17 18 21
20 21 24 25 27 30 38 43 43 33 23 11 5 5 3 1 3 4 4 0 3 2 1 2 2 3 2 4 3 3 3 2 2 2 3 3 5 8 9 9 11 12 18 19 18 24 25 22 22 25 21 20 22 21
40 33 27 31 32 33 36 41 38 3 2 3 4 5 2 3 3 1 1 2 1 2 4 5 3 3 2 3 2 2 2 2 2 2 4 4 11 10 9 10 14 12 12 15 15 22 22 23 21 21 21 23 23 18
41 37 32 28 28 30 36 18 17 3 5 4 3 5 4 1 2 1 1 1 2 2 3 3 3 3 2 3 2 2 2 1 4 3 2 5 10 12 12 12 12 11 11 12 18 19 21 22 21 19 19 19 21 20
22 34 27 24 17 19 21 13 4 3 4 4 7 3 1 4 3 2 3 2 4 2 2 3 3 3 2 3 2 1 5 4 2 1 3 9 12 12 12 12 11 15 17 18 18 20 20 20 19 19 20 18 18 17
25 11 15 19 26 22 13 7 7 6 4 5 4 3 3 4 3 2 3 3 3 2 2 3 4 1 2 3 2 3 2 2 1 2 5 11 12 12 12 13 16 19 19 19 20 19 19 20 23 19 15 13 13 14
15 16 10 8 15 20 10 12 4 4 6 4 3 3 2 4 2 2 2 2 2 2 2 2 2 5 4 2 2 1 1 3 5 6 8 11 13 16 18 15 18 19 19 19 19 19 19 16 14 11 14 14 15 14
20 17 14 14 10 9 4 5 5 4 4 1 2 2 2 3 5 4 5 6 4 5 3 3 5 3 3 2 2 2 3 3 6 7 8 14 18 19 20 20 19 19 19 17 17 16 16 15 12 12 13 11 11 9
19 22 23 19 9 5 4 3 4 4 3 2 2 5 3 3 3 6 8 7 5 3 5 4 3 3 2 3 3 4 4 4 8 9 7 8 16 19 17 18 17 20 20 20 19 18 15 14 10 10 10 9 7 6
12 18 16 12 8 12 4 2 3 2 3 3 1 2 4 7 9 7 7 6 6 4 4 4 5 6 11 14 13 11 11 11 7 6 7 8 13 18 17 16 17 16 15 13 13 13 13 11 9 8 7 7 5 3
10 11 7 12 6 5 4 8 3 2 2 2 2 3 3 4 5 6 5 7 4 5 4 4 7 7 11 13 14 19 19 23 22 21 19 18 7 10 12 13 16 14 14 13 12 12 12 9 6 6 5 5 4 4
6 8 7 11 6 6 2 4 4 3 3 2 2 3 3 2 3 2 4 5 4 7 10 8 13 18 17 21 26 29 23 21 17 17 18 18 19 19 19 18 16 15 14 12 12 11 10 7 6 4 4 5 6 4
9 6 5 4 5 2 3 4 2 2 3 3 3 3 2 3 2 4 4 3 4 13 11 13 11 8 15 19 10 17 18 20 20 20 16 16 15 16 18 18 20 18 15 13 12 10 8 7 6 6 7 7 7 7
7 8 5 6 4 5 5 4 5 4 4 4 3 3 2 3 3 4 3 3 5 7 7 12 14 12 7 7 13 17 19 17 15 14 17 15 16 15 15 17 18 15 11 10 11 9 9 7 7 8 9 10 12 11
8 5 4 5 3 4 2 2 3 4 3 3 2 1 3 3 4 4 3 3 3 5 7 7 6 6 8 13 8 11 14 14 18 19 17 18 15 10 8 7 6 9 12 11 9 8 8 9 10 12 12 11 9 12
6 5 3 2 2 2 4 4 4 5 5 5 3 4 4 5 4 3 2 5 2 7 12 15 14 13 11 13 16 18 19 19 20 18 18 22 22 19 15 13 10 6 6 10 10 9 9 9 11 12 10 11 13 14
3 4 5 6 4 4 4 4 5 5 3 4 3 6 4 3 3 2 2 9 14 14 17 18 17 17 18 17 13 12 16 17 18 19 19 20 19 17 13 10 8 7 6 7 8 7 9 10 10 9 12 14 15 15
3 4 4 7 5 5 5 4 3 3 5 2 3 3 3 3 7 6 9 15 15 15 13 13 17 20 22 23 24 23 16 8 9 6 6 3 8 16 12 6 7 8 7 9 10 9 9 10 12 12 13 13 13 12
5 2 4 4 5 5 4 3 3 4 7 5 5 7 5 4 13 18 16 17 19 16 17 17 16 15 15 17 17 19 20 19 19 14 4 2 6 10 11 12 12 11 10 10 10 9 10 12 12 12 13 13 13 11
2 4 5 4 4 2 5 12 19 17 5 5 8 6 4 3 11 22 21 18 17 16 17 17 17 15 16 15 12 11 8 11 13 12 8 9 10 11 10 11 11 12 13 14 14 14 12 12 13 14 14 15 9 9
4 3 4 3 3 5 4 2 3 4 2 3 2 2 3 3 3 4 9 8 15 16 13 12 12 11 10 9 7 7 6 6 10 9 9 9 11 11 13 15 12 11 12 13 10 11 12 12 13 13 13 13 12 12
4 4 5 3 3 1 2 4 3 3 4 2 2 2 2 3 3 3 5 9 10 7 5 5 5 2 4 5 3 3 7 10 8 6 6 7 11 13 12 12 12 11 11 11 10 11 12 15 17 13 12 12 12 12

GFSWCAN_925_spd_066.txt.gz
Wind_Speed
9 14 30 38 38 39 37 30 61 65 65 63 62 59 56 52 48 41 27 36 21 5 9 5 2 10 12 17 11 4 8 4 3 6 4 4 4 7 3 4 7 7 7 3 3 3 6 8 5 9 7 0 5 6
20 23 28 35 37 34 33 40 63 63 61 60 57 52 51 48 47 39 12 41 23 4 3 7 15 18 17 9 11 9 7 7 7 4 2 3 2 2 5 4 0 3 6 7 9 7 4 7 5 4 5 5 7 7
25 22 28 33 30 27 42 58 60 59 57 54 49 47 47 48 45 41 21 29 11 2 5 3 6 13 15 19 29 6 2 4 4 2 4 3 3 4 4 5 3 3 3 3 3 5 7 5 3 2 5 5 5 5
39 21 16 22 32 50 53 54 53 52 48 45 44 44 44 44 44 27 22 13 6 4 2 5 3 5 9 17 22 17 7 7 5 2 2 3 3 3 4 3 5 4 8 6 4 5 2 6 6 6 4 6 9 8
40 43 46 47 48 48 48 47 46 45 42 42 42 41 42 41 35 29 20 20 11 3 2 4 10 4 2 8 15 23 10 5 3 2 2 3 1 4 1 2 3 5 7 6 7 9 6 5 9 8 8 6 8 14
33 37 40 41 42 42 41 40 41 42 42 44 44 41 38 36 35 19 2 16 21 13 4 4 5 2 4 6 7 5 8 3 3 4 2 1 1 3 3 4 4 3 1 1 2 6 3 6 7 4 7 7 7 10
29 31 33 34 36 36 38 39 41 42 43 39 39 38 36 34 32 4 4 11 25 20 1 4 4 1 3 3 2 3 4 3 3 3 2 3 2 3 3 4 2 2 3 4 9 8 5 3 5 7 12 12 19 18
25 27 27 27 29 30 34 35 36 37 36 34 33 31 31 36 25 6 5 31 31 9 2 2 4 1 3 1 3 2 3 2 4 3 2 3 2 1 1 4 1 2 8 9 7 4 6 13 12 12 13 16 15 13
28 26 24 23 23 24 25 32 34 32 32 29 34 39 31 11 4 3 7 35 9 6 3 2 2 1 3 2 2 2 1 2 2 2 2 2 1 4 7 7 7 8 6 10 10 9 12 17 14 12 12 10 15 12
27 29 32 33 30 36 42 39 38 41 41 41 29 5 2 6 22 30 12 4 2 0 1 3 2 1 1 1 2 2 1 3 3 3 3 2 3 4 6 5 8 12 14 18 12 7 9 8 13 13 14 12 12 11
24 26 27 28 28 32 37 42 47 47 43 11 3 2 12 32 6 1 3 3 2 2 3 3 3 2 3 3 0 2 2 1 3 3 4 2 3 4 2 4 6 9 7 6 10 9 7 9 13 16 13 11 18 20
17 20 26 26 25 27 29 33 36 12 4 5 12 17 10 4 1 3 2 3 4 5 4 4 4 2 1 4 0 2 3 2 1 3 3 2 3 5 4 6 7 8 10 10 11 15 13 13 15 15 14 16 18 18
17 20 20 24 27 29 32 19 13 10 8 6 5 4 4 1 4 5 4 2 3 1 2 2 3 3 2 2 3 3 4 2 1 2 3 1 1 3 6 9 10 11 14 15 15 19 22 21 22 23 19 17 22 20
22 23 23 23 24 25 24 9 12 10 4 3 1 4 2 3 2 1 2 2 1 1 3 2 3 3 1 2 1 3 2 2 2 1 4 1 3 6 7 8 12 12 13 15 14 16 17 20 20 22 21 22 23 19
18 19 16 17 19 20 19 8 3 8 8 3 2 3 4 0 2 0 1 2 3 1 0 2 3 3 2 3 2 3 2 1 2 3 2 2 6 8 9 10 11 11 11 11 14 14 19 22 23 20 18 20 21 22
18 12 8 15 16 13 17 13 8 1 1 1 5 2 2 4 3 4 3 3 3 1 1 3 3 3 3 3 4 2 3 1 1 2 2 5 9 9 10 10 10 11 13 16 19 21 22 22 21 19 18 19 20 20
13 5 17 23 23 17 12 6 3 2 2 4 4 4 2 3 4 3 4 3 3 2 2 3 4 3 1 3 2 3 2 2 2 2 5 7 10 11 12 12 13 17 18 20 22 21 21 22 22 20 18 14 15 16
7 15 31 35 30 25 4 2 2 3 5 3 4 5 5 6 3 4 5 4 2 2 2 3 2 5 4 3 3 2 3 4 5 6 7 9 11 12 16 14 19 21 22 22 23 21 20 19 17 14 16 14 15 12
19 26 33 34 22 6 3 3 4 4 6 3 3 4 4 2 6 6 6 6 4 4 3 3 6 4 3 2 2 2 3 3 6 7 9 14 17 19 22 24 23 23 22 21 19 17 17 16 15 14 13 11 10 8
24 20 17 18 11 3 4 3 4 4 4 3 3 7 4 3 6 5 9 8 7 4 6 5 4 4 4 4 3 4 5 5 7 10 8 8 16 20 19 19 18 21 21 21 19 18 17 17 16 14 13 10 9 7
10 11 11 13 4 9 3 2 3 3 3 3 2 2 4 6 9 7 6 7 7 4 4 4 4 5 8 12 14 15 11 11 8 7 8 9 15 19 19 19 20 19 17 15 15 16 17 14 13 13 13 12 8 5
6 7 4 8 4 4 3 7 3 2 3 3 3 3 3 4 5 7 4 7 4 4 4 3 6 5 9 13 14 20 19 25 23 22 21 19 9 10 14 16 18 17 18 16 16 15 14 14 12 11 10 9 6 5
5 7 7 10 5 5 2 4 3 3 3 2 2 3 4 3 4 4 4 4 3 6 10 6 11 15 15 19 26 28 24 24 19 19 20 21 22 21 21 21 19 17 15 15 15 16 15 11 11 10 8 8 7 6
9 6 5 4 5 2 2 4 3 3 3 2 3 4 3 3 2 4 4 3 4 11 8 12 11 7 13 19 11 17 19 20 22 22 18 19 18 19 21 21 21 21 17 14 15 15 14 13 11 11 10 9 10 11
7 8 5 7 4 6 5 4 4 3 4 3 3 4 3 3 3 3 2 3 5 7 7 11 13 11 8 8 13 19 21 18 18 16 18 18 18 18 19 21 24 22 15 16 16 14 14 12 13 12 11 11 12 12
8 7 6 5 4 4 2 3 4 5 3 3 4 3 3 3 4 4 2 2 4 5 6 7 6 7 8 14 8 13 15 16 21 22 18 18 16 13 11 9 9 12 15 13 12 12 10 10 10 10 9 11 11 11
6 6 3 4 3 3 4 3 3 4 5 4 3 3 3 4 4 3 2 5 3 7 11 14 13 14 12 14 17 20 22 24 24 21 20 24 23 21 19 15 11 8 6 8 8 8 8 8 8 9 10 11 11 11
4 5 5 6 5 4 4 4 5 5 4 4 3 5 4 3 3 2 3 7 11 13 16 18 19 21 23 22 21 22 22 22 22 21 23 22 19 16 14 12 9 6 6 7 8 7 7 7 8 10 11 11 11 11
4 3 3 7 5 6 6 5 4 3 5 1 3 2 3 3 3 4 8 13 15 18 17 18 19 22 23 22 21 19 12 5 6 6 5 3 7 15 13 11 10 9 9 8 7 6 7 8 10 10 10 12 13 12
4 2 5 5 5 6 4 4 3 4 4 4 4 7 4 5 14 15 15 14 16 16 15 16 14 17 18 20 20 21 20 19 18 13 5 2 4 6 11 11 11 11 12 12 11 11 9 9 9 10 10 10 11 11
2 4 5 5 4 1 5 6 15 15 6 6 7 6 4 3 8 19 16 13 15 16 17 17 17 14 14 14 13 13 13 13 10 9 8 7 6 7 9 9 10 11 11 11 11 11 11 11 13 13 11 11 11 12
4 4 4 4 2 2 2 2 2 3 3 3 3 2 3 3 3 4 6 5 9 12 11 11 12 11 11 10 10 9 8 7 6 5 5 6 7 8 9 10 11 10 10 10 10 9 9 11 12 11 11 12 12 12
3 3 4 3 2 2 2 4 4 2 3 2 2 2 1 3 3 2 5 7 6 4 4 4 5 6 6 6 6 7 8 7 5 4 5 6 8 11 11 9 9 9 9 8 8 9 9 10 10 10 11 12 12 12

GFSWCAN_925_spd_069.txt.gz
Wind_Speed
26 21 9 20 15 29 39 44 47 46 31 64 70 70 65 62 61 44 23 24 20 2 1 2 5 9 14 15 10 5 6 4 2 4 4 4 3 5 5 3 5 7 7 4 3 2 8 7 4 9 7 3 3 7
17 15 15 20 24 31 37 40 42 39 50 65 69 66 62 58 57 42 14 21 16 2 2 2 13 24 18 19 7 12 6 6 7 4 3 3 2 1 6 11 3 4 5 5 9 7 4 11 6 6 4 4 5 8
18 14 19 23 28 30 36 37 39 34 63 65 64 61 57 55 49 39 20 23 11 2 12 10 9 13 12 24 32 5 1 5 5 3 4 3 5 5 4 5 4 4 3 3 2 5 6 5 3 3 5 5 4 5
11 15 19 24 25 28 32 32 30 60 60 59 57 54 51 47 44 34 22 22 17 2 4 6 10 11 20 27 30 17 8 6 5 2 3 3 3 4 5 3 5 3 9 6 3 4 3 6 8 2 4 5 7 9
29 13 13 17 22 24 37 52 55 56 55 54 51 47 45 43 42 29 18 21 31 3 3 3 12 11 12 28 22 22 6 4 2 3 2 3 2 3 0 1 2 5 6 5 7 7 5 6 7 11 10 10 13 13
38 43 45 45 46 51 51 52 51 50 48 47 46 43 41 40 38 25 3 18 32 19 2 2 3 5 12 16 16 15 12 3 2 3 2 1 1 3 4 5 4 5 4 2 3 1 1 3 5 3 7 8 9 12
33 36 40 43 46 48 49 48 47 47 46 44 42 41 43 43 31 5 4 7 40 12 2 3 3 3 6 6 3 3 2 2 2 2 2 3 2 3 1 4 3 2 2 2 3 6 1 3 4 6 11 12 16 16
29 32 34 38 40 43 45 45 45 44 44 44 44 42 41 37 21 4 2 22 30 5 1 3 4 0 2 3 4 2 3 2 2 3 1 3 2 1 3 4 3 4 6 5 4 4 2 9 10 11 13 15 16 14
24 27 31 34 36 38 40 42 44 46 48 44 42 39 31 10 3 5 30 28 8 4 2 3 3 1 3 2 3 3 1 2 1 3 3 4 2 5 5 7 10 12 10 12 8 8 4 8 12 12 14 12 17 15
22 20 25 29 33 36 38 38 39 40 41 41 33 5 4 8 22 33 8 2 2 2 1 2 2 2 1 1 2 3 1 3 4 3 4 3 3 4 3 5 6 4 6 13 9 7 9 9 12 13 9 8 12 14
27 30 24 22 26 31 32 34 35 35 36 9 4 3 10 30 3 3 3 4 3 3 3 2 3 3 4 3 3 2 2 1 4 3 5 2 2 2 8 3 4 7 11 6 3 4 5 10 14 15 13 12 15 17
18 22 29 29 31 30 29 34 34 19 6 7 11 13 9 3 2 3 4 3 2 4 3 4 3 2 1 2 3 2 2 1 3 3 3 3 1 4 3 3 7 8 9 10 9 13 13 14 15 14 13 14 19 22
21 22 24 29 28 32 30 20 12 10 9 5 4 3 3 1 4 4 7 3 4 4 4 3 3 2 2 3 3 2 2 1 1 2 2 2 2 2 5 8 11 11 13 14 16 20 22 22 22 22 18 20 21 21
23 23 23 22 22 21 18 14 12 8 10 3 2 3 2 4 3 3 1 4 2 2 4 4 3 2 2 2 2 2 1 1 2 2 2 2 4 6 8 8 11 12 12 14 14 16 17 20 21 23 23 23 25 19
26 24 22 22 16 12 12 16 11 12 4 2 1 2 1 1 2 1 1 1 3 2 3 3 3 2 2 3 1 2 2 2 3 2 1 3 6 7 9 10 12 12 12 12 13 13 18 22 23 23 21 21 22 21
23 20 17 18 16 10 8 12 14 6 2 2 5 2 3 2 2 3 3 4 4 2 1 2 3 3 2 2 3 4 2 3 2 2 2 5 8 9 10 11 12 12 13 15 19 21 22 22 22 22 22 20 21 21
14 5 18 18 21 16 11 7 5 4 4 4 3 4 3 4 4 3 3 3 3 1 2 2 4 4 1 4 3 3 3 2 2 3 5 7 9 10 12 13 13 18 19 21 23 24 25 25 24 24 20 17 18 18
2 20 26 22 18 8 5 4 2 3 4 4 3 5 6 5 3 5 5 6 1 2 2 3 2 6 4 3 3 2 3 5 6 7 7 8 10 12 16 15 20 23 23 24 25 24 22 19 19 16 17 16 16 14
18 25 29 24 11 6 2 2 2 3 4 2 2 4 3 2 7 8 8 7 5 5 4 4 6 4 3 4 3 3 4 4 7 8 10 15 18 19 21 24 24 24 23 22 21 19 20 18 16 14 12 11 12 10
29 24 21 12 6 3 3 2 3 4 3 2 2 6 4 4 6 6 10 9 7 4 7 5 4 4 3 4 4 4 5 6 7 10 9 8 16 20 19 20 19 22 23 23 21 20 19 19 17 15 14 12 10 8
20 15 13 9 5 8 3 2 3 3 3 3 1 3 4 5 9 7 7 7 7 4 4 4 4 5 8 10 12 14 11 11 8 8 9 9 14 18 19 20 21 21 19 17 16 18 18 16 13 13 14 12 10 8
7 10 5 4 3 2 3 7 2 2 2 3 2 3 3 3 4 7 5 8 4 4 4 4 6 5 9 12 13 19 19 24 23 22 21 19 9 10 14 17 19 18 18 17 17 16 15 12 12 13 13 10 9 9
10 4 5 6 4 5 2 6 4 3 3 2 2 4 3 3 3 4 4 4 3 6 8 6 11 15 14 19 25 27 23 24 18 19 19 20 22 21 21 21 18 17 16 16 14 14 14 13 14 13 12 11 11 11
6 6 5 4 5 2 2 4 3 3 3 3 3 3 3 3 2 4 4 3 4 11 9 11 10 6 11 18 11 17 18 20 23 22 18 20 19 19 20 20 20 18 15 14 15 15 15 14 12 13 13 12 12 12
7 8 5 7 4 5 6 4 5 3 4 4 4 4 3 3 3 4 3 3 5 6 7 11 12 9 8 8 13 18 20 18 18 16 18 18 19 19 20 20 21 18 15 17 15 14 13 12 12 11 12 12 11 12
8 8 5 5 4 4 3 4 4 5 4 4 4 3 2 3 4 4 2 2 3 5 6 7 6 7 8 14 8 13 14 14 19 21 16 14 13 12 11 10 10 11 13 12 11 11 10 10 10 10 11 10 10 9
6 5 3 4 3 3 4 4 4 5 5 4 2 3 3 4 4 3 2 6 3 7 10 13 12 14 12 15 16 17 20 21 22 20 17 21 21 18 16 12 10 7 7 8 7 7 6 6 7 8 9 10 10 10
4 5 5 5 5 5 4 4 5 5 3 3 3 4 3 2 3 2 3 5 9 12 16 20 20 19 19 21 21 22 23 24 25 24 24 22 18 16 14 12 8 6 5 6 6 6 7 7 8 9 9 10 11 11
4 3 4 6 5 6 6 5 4 3 4 1 3 2 3 3 5 3 6 9 12 14 14 15 18 21 22 22 19 15 7 5 4 5 6 3 5 12 11 10 9 10 10 9 7 6 7 8 8 8 8 8 9 10
3 2 4 4 5 6 4 3 2 4 4 3 4 6 4 5 10 12 14 14 16 16 15 15 13 16 17 19 18 19 18 15 12 10 5 4 4 6 7 8 9 9 9 9 9 9 7 8 9 9 9 10 10 11
2 4 5 4 4 1 2 1 14 14 5 6 6 5 4 3 7 16 14 12 14 15 16 16 14 12 13 12 11 10 9 9 10 11 11 9 7 7 7 8 8 8 8 8 8 9 9 10 11 10 10 10 11 11
4 4 4 4 1 2 2 2 2 3 3 3 3 2 2 3 3 4 4 5 9 11 12 11 12 11 10 10 10 9 9 8 8 8 7 7 7 8 9 8 7 8 8 8 8 7 8 8 8 9 9 10 11 11
3 3 3 3 2 1 2 3 4 2 3 2 2 1 1 2 3 2 3 4 5 6 7 8 9 8 7 7 7 7 7 6 4 4 4 5 8 9 8 8 8 7 7 7 7 7 7 7 7 8 9 10 10 11